Biedriem

VSK Noskrien twitter
VSK Noskrien Facebook profils

Polar M400 HR
Ūdensizturīgs GPS pulsometrs ikdienas treniņiem un sportiskiem sasniegumiem.
EUR 189.00

Noskrietais


Pēdējās nedēļas skrējieni grupai
Datums Notikums Skrējējs Km Laiks Pulss min/km km/h Apavi
15/12/17 97.4 -1- Ønske 8.27 53:00 06:24 9.36 ir
15/12/17 12.00.Soļošana ar skriešanas elementiem MAKRO 15.00 1:40:16 06:41 8.98 ir
15/12/17 Treniņš sniegā p.sintija 8.51 47:54 05:37 10.66 ir
15/12/17 5diennieks kļučiks 16.15 1:37:08 140 06:00 9.98 ir
15/12/17 treadmill DServ 9.10 43:18 04:45 12.61 ir
15/12/17 Olaine Naurītis 7.73 42:00 05:26 11.04 ir
15/12/17 Skrējiens Dzintars 12.07 58:10 04:49 12.45 ir
15/12/17 tr/d munkirs 9.30 51:19 154 05:31 10.87 ir
15/12/17 Skrējiens kopā ar norci aicis 10.00 52:48 05:16 11.36 ir
15/12/17 ķeksītis Ugisdatavs 12.00 58:30 127 04:52 12.31 ir
15/12/17 Jddud kalvicc94 9.10 40:00 04:23 13.65 ir
15/12/17 Skrējiens Otomere 8.87 53:33 150 06:02 9.94 ir
15/12/17 8:05 velo ar suni (+3)(75.2) unknown 5.71 28:22 153 04:58 12.08
15/12/17 sniegs neirula 9.11 1:05:16 156 07:09 8.37 ir
15/12/17 Skrējiens, +5°, šad tad krusa Alarion 4.53 45:10 135 09:58 6.02 ir
15/12/17 4km pa stadionu,pārējo pa asfaltu.Kopumā: žļura, vējš, putenis un slinkums-grūši. Gīča 10.20 52:10 150 05:06 11.73
15/12/17 Vāveres ielūdz no rītiem #2.12 maziinais 14.54 1:27:07 141 05:59 10.01 ir
15/12/17 Skrējiens InTi68 1.10 29:00 26:21 2.28 ir
15/12/17 Skrējiens daskilla 11.19 1:13:33 06:34 9.13 ir
15/12/17 Skrējiens Jaudinieks 20.00 1:53:22 05:40 10.59 ir
15/12/17 Skrējiens Valdis.M 6.30 28:29 04:31 13.27 ir
15/12/17 Skrējiens chunka 7.01 44:57 06:24 9.36
15/12/17 Skrējiens Ainīc 12.06 1:08:09 05:39 10.62 ir
15/12/17 Skrējiens johaidi 7.23 44:19 06:07 9.79 ir
15/12/17 Skrējiens ROY 7.51 37:34 05:00 11.99
15/12/17 #253.N12D5 JurBer 14.08 1:40:00 138 07:06 8.45 ir
15/12/17 SLN36 lerychv 10.16 59:29 05:51 10.25 ir
15/12/17 Vāveres ielūdz #2.12 SelfijuPavēlniece 10.10 1:05:14 158 06:27 9.29 ir
15/12/17 Darbs. Spilve - Daugavas SN. Raibacainais Ezītis 15.04 1:21:04 05:23 11.13 ir
15/12/17 Garais no rīta DK86 25.00 2:26:08 131 05:50 10.26 ir
15/12/17 6.0 und 6.00 35:21 05:53 10.18 ir
15/12/17 Tukums sergejs1 14.00 1:33:02 06:38 9.03 ir
15/12/17 rr j slapjš pavējš edGars 5.00 29:51 135 05:58 10.05 ir
15/12/17 rīta pikols 12.11 1:26:56 125 07:10 8.36 ir
15/12/17 pa sniedziņu Sanča_Ro 5.30 37:50 134 07:08 8.41 ir
15/12/17 Vāveres ielūdz no rītiem borga 9.62 1:00:30 138 06:17 9.54 ir
15/12/17 Skrējiens frišais 7.50 42:23 05:39 10.62 ir
15/12/17 Skrējiens garaissss 10.45 1:00:04 127 05:44 10.44 ir
14/12/17 4x2@4:35 forshais1 14.56 1:17:03 05:17 11.34 ir
14/12/17 18 Elvis 10.16 56:02 05:30 10.88
14/12/17 Iddidu kalvicc94 8.25 40:00 04:50 12.38 ir
14/12/17 Gatavošanās SKM Trakais 14.01 1:04:05 04:34 13.12 ir
14/12/17 es, suns, prieks Lauma 9.00 1:02:46 139 06:58 8.60 ir
14/12/17 Skrējiens Tārps 10.30 1:10:00 06:47 8.83 ir
14/12/17 Vakara izklaide mazgājot kājas Mošķis 6.00 43:00 07:10 8.37 ir
14/12/17 #CanariasWeek6 20+Drill+5x100+4x2 @ 4:15 (2') + 10 rubernmardom 16.01 1:13:53 136 04:36 13.00 ir
14/12/17 14.12. thunder man 8.04 46:58 05:50 10.27 ir
14/12/17 20. nedēļa: pa īstu sniegu stellaa 4.74 30:18 150 06:23 9.39 ir
14/12/17 Pirmsronis trololo 9.60 1:02:13 134 06:28 9.26
14/12/17 Ceturtdienis ar SFS _Edgars_ 9.45 52:25 05:32 10.82 ir
14/12/17 T avalanche 7.57
14/12/17 12.2 und 12.20 1:02:50 05:09 11.65 ir
14/12/17 Mežaparks. sigita 10.00 1:02:59 06:17 9.53 ir
14/12/17 Vējaina pēcpusdiena pilsētā un mežā englishteacher 14.00 1:10:29 05:02 11.92 ir
14/12/17 Skrējiens Dzintars 14.14 1:31:42 06:29 9.25 ir
14/12/17 Treniņskrējiens no punkta A uz punktu B Rembis 8.13 38:41 04:45 12.61 ir
14/12/17 Ceturtdienis Rainy777 3.20 24:30 07:39 7.84 ir
14/12/17 Tas pats, tikai pa sniegu Jānis_v 11.80 1:10:00 05:55 10.11 ir
14/12/17 Pa Iļģuciema kvartāliem. Saule +/- 0 bowskis 5.30 32:00 06:02 9.94 ir
14/12/17 Ceturtdienas mierīgais noris 10.21 50:52 04:58 12.04 ir
14/12/17 Skrējiens kopijs 9.20 1:09:25 07:32 7.95 ir
14/12/17 Skrējiens Andrex 12.35 1:09:16 05:36 10.70
14/12/17 Skrējiens ramiism 11.11 1:03:17 05:41 10.53 ir
14/12/17 Skrējiens Ainīc 7.07 43:37 06:10 9.73 ir
14/12/17 Skrējiens Zanda19 8.19 55:37 06:47 8.84 ir
14/12/17 Skrējiens gudeens 10.15 54:12 05:20 11.24
14/12/17 Skrējiens guntars.bumans 10.02 1:00:41 06:03 9.91
14/12/17 Skrējiens daskilla 5.37 27:23 05:05 11.77 ir
14/12/17 Skrējiens Siincha 5.56 35:06 06:18 9.50
14/12/17 Skrējiens raraitis 13.50 1:01:39 04:34 13.14 ir
14/12/17 Skrējiens didzzzons 10.33 55:25 05:21 11.18
14/12/17 Skrējiens MIk 6.41 44:00 06:51 8.74 ir
14/12/17 Skrējiens ezisskrien 11.86 1:11:14 06:00 9.99 ir
14/12/17 Skrējiens Zigis 5.10 27:56 05:28 10.95
14/12/17 V-celiņi Rasels 10.90 57:20 137 05:15 11.41 ir
14/12/17 Skrējiens Mairita 9.34 1:19:25 08:30 7.06
14/12/17 Skrējiens M.Po 5.62 37:06 06:36 9.09
14/12/17 Skrējiens Birkofs 8.01 54:58 06:51 8.74
14/12/17 Skrējiens GeT_RiGhT 13.12 1:23:25 06:21 9.44
14/12/17 Skrējiens WiskijsAlus 4.41 25:05 05:41 10.55
14/12/17 Skrējiens Liesma 8.01 54:39 06:49 8.79
14/12/17 Skrējiens Kristaps Bruss 7.17 44:45 06:14 9.61 ir
14/12/17 Skrējiens Martins.Krumins 15.15 1:21:43 05:23 11.12 ir
14/12/17 Skrējiens modža 5.66 29:10 05:09 11.64
14/12/17 Skrējiens CaunietisLV 7.01 35:43 05:05 11.78
14/12/17 Skrējiens Mr.Linde 14.00 1:26:44 06:11 9.68 ir
14/12/17 Skrējiens ZZ88 11.70 1:12:13 06:10 9.72 ir
14/12/17 Skrējiens Miezers 11.00 1:05:41 05:58 10.05 ir
14/12/17 Skrējiens Valdis.M 6.66 30:34 04:35 13.07 ir
14/12/17 Skrējiens Valdis.M 1.08 05:30 05:05 11.78 ir
14/12/17 Skrējiens oskarsdamb 4.24 24:21 05:44 10.45 ir
14/12/17 Skrējiens Booo_Kat 13.00 1:00:25 04:38 12.91
14/12/17 Skrējiens zandarts 12.10 1:08:22 05:39 10.62 ir
14/12/17 Skrējiens MBirums 10.24 1:06:19 06:28 9.26 ir
14/12/17 Skrējiens EvijaTaurene 3.65 22:41 06:12 9.65 ir
14/12/17 Skrējiens EvijaTaurene 10.27 1:12:06 07:01 8.55 ir
14/12/17 Pa šoseju Pičuks Dz 3.00 20:50 06:56 8.64
14/12/17 Gaiši. Viegli. Sniegs. Ceturtdiena Jay-P 3.09 18:00 130 05:49 10.30 ir
14/12/17 Skrējiens xorix 4.11 22:38 05:30 10.90 ir
14/12/17 Skrējiens des 5.01 28:30 05:41 10.55 ir
14/12/17 Skrējiens LindeM 7.36 40:03 05:26 11.03 ir
14/12/17 Skrējiens Andriic 10.49 1:00:02 05:43 10.48
14/12/17 Skrējiens MartinsOzolins 14.69 1:23:38 05:41 10.54 ir
14/12/17 Skrējiens JanJ 5.61 29:05 05:11 11.57
14/12/17 После Кросфита rmamedov 5.67 35:16 154 06:13 9.65 ir
14/12/17 Skrējiens Bubu 6.51 36:58 05:40 10.57 ir
14/12/17 Skrējiens Natthe 6.60 44:01 140 06:40 9.00 ir
14/12/17 Skrējiens Stupinss 12.05 56:41 04:42 12.76 ir
14/12/17 Skrējiens andronkuls 12.05 1:04:45 05:22 11.17 ir
14/12/17 Skrējiens Casperr 9.11 48:49 05:21 11.20 ir
14/12/17 trenins gintsp 5.03 28:53 05:44 10.45 ir
14/12/17 Skrējiens Logins 21.50 2:33:00 07:06 8.43 ir
14/12/17 Slidenais Cassandra 9.15 54:54 06:00 10.00 ir
14/12/17 Āgenskalna priedes topinjs 1.16 06:52 05:55 10.14 ir
14/12/17 8.80 km zvaigzne 8.80 53:34 06:05 9.86 ir
14/12/17 vakara putenis no darba stjopachio 11.87 1:00:35 124 05:06 11.76 ir
14/12/17 AR ilZZuks 10.05 1:01:33 06:07 9.80 ir
14/12/17 Vējš kniebj degunā... vargans 11.12 1:18:29 145 07:03 8.50 ir
14/12/17 #19 Piecītis 160 Zazuuu 5.00 32:37 145 06:31 9.20 ir
14/12/17 Snieee-e-e-egs! anciite 5.75 36:05 137 06:16 9.56 ir
14/12/17 Vakara +1 D 6/11 pa sniedziņu ar slapju sniegu Aldis B 12.50 1:18:23 169 06:16 9.57 ir
14/12/17 Pa ilgiem laikiem sirsnīgi nolikos :) Ginchaa 10.15 59:30 129 05:51 10.24
14/12/17 atsildamies LEICHA 3.98 27:34 151 06:55 8.66
14/12/17 Iesildamies + 1h30min gym LEICHA 3.96 26:54 150 06:47 8.83
14/12/17 Skrējiens Kru 10.23 50:52 04:58 12.07 ir
14/12/17 Skrējiens NR. 10 Laaurappeeterzone 11.02 1:09:59 145 06:21 9.45 ir
14/12/17 b js79 13.10 ir
14/12/17 Lenta 23 (incl 3.5) IvarsRacins 6.00 32:38 05:26 11.03 ir
14/12/17 Lēnām, ar Dž, sniegs, ledus, slidens, -0.1C sola.scriptura 4.24 1:00:00 14:09 4.24 ir
14/12/17 W4. D4. Veloceliņš. biciic 14.22 1:17:47 05:28 10.97 ir
14/12/17 228. ilvarito 10.18 50:01 04:54 12.21 ir
14/12/17 Skrienlatvija29 Alvis D 18.01 1:31:52 05:06 11.76 ir
14/12/17 Putenī.Sv.Jāņa no Krusta dienā brāļa un visu Karmelam piederīgo nodomā. Ligy 5.04 33:27 149 06:38 9.04 ir
14/12/17 Skrējceliņš - uz pirkstiem Andrejs Verza 3.00 15:47 05:15 11.40 ir
14/12/17 Nūjot atļauts. uz mājām ar troksni Lielkuilis 11.67 1:40:16 08:35 6.98 ir
14/12/17 19.00.Soļošana MAKRO 8.00 57:35 07:11 8.34 ir
14/12/17 labs laiks, lai uzskrietu- sniegs, vakars un silti. M_Freimis 7.38 59:00 07:59 7.51
14/12/17 Ceturtdienas run & swim koptreniņš trijatā KarlisBumans 9.60 1:02:20 06:29 9.24 ir
14/12/17 And when she smiles, the ice forgets to melt away strazdiņš 4.44 26:00 05:51 10.25 ir
14/12/17 pretī putenim jeerika 10.42 1:03:11 06:03 9.90
14/12/17 noskrien ziemu kuldigà Ilze1409 10.02
14/12/17 Vakars ar Kasparu sniegos OreMan 10.00 55:27 05:32 10.82 ir
14/12/17 Kalnu treniņš ar lecieniem. kalnu_žubīte 4.95 49:59 156 10:05 5.94 ir
14/12/17 Treniņš snow andis.deze 8.00 35:25 04:25 13.55 ir
14/12/17 Skrējiens 12.00 58:10 04:50 12.38 ir
14/12/17 Iesildīšanās pirms treniņa vitaminka D 13.00 1:01:15 144 04:42 12.73 ir
14/12/17 Skrējiens pa sniegu Roziiite 5.15 41:03 07:58 7.53 ir
14/12/17 Lēnītis pa sniegu/ VFS DK86 8.00 55:34 124 06:56 8.64
14/12/17 Melnā lenta 7 rotācijukaraliene 1.33 20:09 111 15:09 3.96 ir
14/12/17 Lenā garā SITYZOR1 10.03 1:08:22 139 06:48 8.80 ir
14/12/17 ... in 12.05 1:16:44 06:22 9.42 ir
14/12/17 Treniņš P vnkIndra 12.39 1:25:36 149 06:54 8.68 ir
14/12/17 skrienu +/-0 Kris-tin 7.01 50:55 148 07:15 8.26 ir
14/12/17 tr briediitc 7.02 50:49 138 07:14 8.29 ir
14/12/17 Basām Jaunmārupē einmed 10.33 1:08:20 128 06:36 9.07 ir
14/12/17 s/c andris13 13.50 1:00:00 04:26 13.50 ir
14/12/17 pulss trako neirula 4.90 43:32 138 08:53 6.75 ir
14/12/17 uz darbu #111, Nūjot atļauts. Lielkuilis 11.76 1:33:53 07:58 7.52 ir
14/12/17 Koptreniņš Cietoknis Alice 7.58 48:24 06:23 9.40
14/12/17 skrējiens guncha 20.01 1:32:07 04:36 13.03 ir
14/12/17 4diena ar Kristapu Gatis.K 15.20 1:20:43 137 05:18 11.30 ir
14/12/17 97.3 -1- Ønske 8.16 52:00 06:22 9.42 ir
14/12/17 Lai ir auksti, vajag spēt, iziet ārā skraidelēt munkirs 9.30 52:02 146 05:35 10.72 ir
14/12/17 11:53 Mežaparks(10x100m kāpinājumi/+0) GačusSkrunda 9.65 46:12 04:47 12.53 ir
14/12/17 Pa Anniņmuižas mežiņu Inta Amoliņa 10.33 1:14:57 157 07:15 8.27 ir
14/12/17 Nothing to stop this being the best day ever, nothing to keep us from where we should be Cukuriņš 10.14 47:34 04:41 12.79 ir
14/12/17 Kamēr darbā brīvs.Saldus. Gīča 13.70 1:07:24 152 04:55 12.20
14/12/17 viduvējais Ugisdatavs 17.40 1:29:00 130 05:06 11.73 ir
14/12/17 8:04 velo ar suni (0)(75.6) unknown 5.68 28:23 152 04:59 12.01
14/12/17 Light Tempo. neomax 8.27 52:49 143 06:23 9.39 ir
14/12/17 Skrējiens Dubultaģente 8.78 1:06:00 145 07:31 7.98 ir
14/12/17 Treniņš Misters 4.70 27:50 05:55 10.13 ir
14/12/17 skrējiens Mermaid 11.50 1:02:56 05:28 10.96 ir
14/12/17 4.7 und 4.70 25:13 05:21 11.18 ir
14/12/17 Skrējiens EmilsE 5.64 33:44 05:58 10.03 ir
14/12/17 Skrējiens chunka 8.37 46:17 05:31 10.85 ir
14/12/17 Skrējiens edžus11 8.01 41:34 149 05:11 11.56 ir
14/12/17 Skrējiens KarīnaK 6.36 37:06 05:50 10.29 ir
14/12/17 Vērojot krītošās zvaigznes. vitjka 10.59 55:17 05:13 11.49 ir
14/12/17 Imanta 4 - Lidosta (DHL) Valdis.M 6.27 28:16 04:30 13.31 ir
14/12/17 Skrējiens druupijs 26.01 2:19:58 05:22 11.15 ir
14/12/17 Skrējiens ROY 7.51 37:44 05:01 11.94
14/12/17 Skrējiens oskarsdamb 3.17 17:58 05:40 10.59 ir
14/12/17 kross uz darbu bunfunk 10.00 43:46 132 04:22 13.71
14/12/17 treadmill DServ 10.00 47:47 04:46 12.56 ir
14/12/17 Skrējiens prieditism 3.02 18:12 06:01 9.96
14/12/17 Skrējiens 0 C InTi68 10.20 1:08:53 146 06:45 8.88 ir
14/12/17 Skrējiens Chuncha 10.00 58:32 05:51 10.25 ir
14/12/17 SLN35 lerychv 8.13 48:35 113 05:58 10.04 ir
14/12/17 Pēc Elzas, atpakaļ ar ratiem bunbinja 2.76 20:40 07:29 8.01 ir
14/12/17 #252.N12D4 JurBer 5.00 33:38 136 06:43 8.92 ir
14/12/17 no rīta -1*, 1503.g.dzimis Nostradams JK 1.62 10:49 06:40 8.99 ir
14/12/17 šķiet, ka kāds notriekts uz piemājas gājēju pārejas eees 3.45 23:00 06:40 9.00 ir
14/12/17 rīta pikols 12.14 1:26:42 125 07:08 8.40 ir
14/12/17 Skrējiens frišais 11.79 1:05:08 05:31 10.86 ir
14/12/17 Skrējiens garaissss 10.45 59:12 130 05:39 10.59 ir
13/12/17 Ādaži Naurītis 14.41 1:11:05 04:55 12.16 ir
13/12/17 Pilsēta aicis 4.00 21:30 05:22 11.16 ir
13/12/17 Lēnām jdex 6.51 41:11 06:19 9.48 ir
13/12/17 {6:27} Easy run with Andrejs and OreMan ansiso 6.50 ir
13/12/17 Gatavošanās SKM Trakais 10.08 43:29 04:18 13.91 ir
13/12/17 13.12. thunder man 9.22 46:20 05:01 11.94 ir
13/12/17 Skrējiens Booo_Kat 12.33 1:03:01 05:06 11.74
13/12/17 Skrējiens AivisP 7.73 39:21 05:05 11.79 ir
13/12/17 Skrējiens agnijs 14.15 1:17:58 05:30 10.89
13/12/17 Regenerative sundowner 10.00 1:22:30 08:15 7.27 ir
13/12/17 Rosme Csinipatas 3.54 20:31 05:47 10.35 ir
13/12/17 Vakarā DK86 10.00 1:00:00 134 06:00 10.00
13/12/17 esmu slims @Bolero Voldžiks 2.00 12:00 126 06:00 10.00 ir
13/12/17 60' kardio forshais1 10.13 1:00:00 05:55 10.13 ir
13/12/17 Pirms sapulces Roseline 11.11 1:05:16 05:52 10.21
13/12/17 iesildisanas, max - 156 Aleks Kor 2.12 12:43 146 05:59 10.00 ir
13/12/17 The promised land is there for those who need it most Cukuriņš 13.91 1:06:09 04:45 12.62 ir
13/12/17 Skrējiens DS93 12.00 55:00 04:35 13.09
13/12/17 Snieg... vargans 11.19 1:20:47 144 07:13 8.31 ir
13/12/17 Skrējiens Nr.9  (8/9km-100/100) Laaurappeeterzone 10.15 1:04:13 147 06:19 9.48 ir
13/12/17 10 und 10.00 49:55 04:59 12.02 ir
13/12/17 3x2min/2min+4x1min/1min bunfunk 14.00 57:36 140 04:06 14.58
13/12/17 #CanariasWeek6 Pulsa 50 rubernmardom 9.83 50:04 130 05:05 11.78 ir
13/12/17 T avalanche 6.22
13/12/17 Skrējiens borga 9.07 1:01:00 139 06:43 8.92 ir
13/12/17 W4. D3. Vēlais līdz Volvo hallei. biciic 7.32 39:44 05:25 11.05 ir
13/12/17 Pa veloceliņu spruuds 12.00 1:06:12 05:31 10.88
13/12/17 Skrējiens anikka 3.85 25:04 06:30 9.22 ir
13/12/17 Treniņskrējiens no punkta A uz punktu B Rembis 5.26 22:56 04:21 13.76 ir
13/12/17 Lidz Arkādijas parka pīlēm. +1, saule, ledus. bowskis 10.00 1:01:00 06:06 9.84 ir
13/12/17 Skrējiens raraitis 16.07 1:17:40 04:49 12.41 ir
13/12/17 Skrējiens Ievinja 12.12 1:22:33 06:48 8.81 ir
13/12/17 Skrējiens raitisbe 0.82 05:11 06:19 9.49 ir
13/12/17 Skrējiens raitisbe 15.16 1:25:12 05:37 10.68 ir
13/12/17 Skrējiens kalvicc94 12.15 50:01 04:06 14.58 ir
13/12/17 Skrējiens Piiraadzinjsh 6.35 46:41 07:21 8.16
13/12/17 Skrējiens chapic1 14.26 1:11:03 04:58 12.04 ir
13/12/17 Skrējiens andronkuls 7.12 40:00 05:37 10.68 ir
13/12/17 Skrējiens Tārps 9.40 1:00:00 06:22 9.40 ir
13/12/17 Skrējiens EvijaTaurene 8.29 52:16 06:18 9.52 ir
13/12/17 Skrējiens Mairita 8.31 1:07:51 08:09 7.35
13/12/17 216.treniņš Daiguciitis 9.20 1:09:16 07:31 7.97 ir
13/12/17 Skrējiens NITRO 5.13 28:53 05:37 10.66 ir
13/12/17 Skrējiens experc 10.03 1:00:08 05:59 10.01 ir
13/12/17 Lidosta (DHL ) - Imanta. Ar 2 fārtlekiem. Valdis.M 6.63 28:58 04:22 13.73 ir
13/12/17 Vēlais pusnakts skrējiens. Valdis.M 1.04 04:34 04:23 13.66 ir
13/12/17 Skrējiens Kaspars33 10.03 51:49 05:09 11.61 ir
13/12/17 Koptreniņš rmamedov 12.13 1:15:53 147 06:15 9.59 ir
13/12/17 Skrējiens guntars.bumans 8.15 50:00 06:08 9.78
13/12/17 Skrējiens Ainīc 5.00 28:51 05:46 10.40 ir
13/12/17 Skrējiens Lubyz 11.66 1:08:11 05:50 10.26 ir
13/12/17 Skrējiens I_V 10.19 57:07 05:36 10.70 ir
13/12/17 Skrējiens elapins 10.10 1:05:03 06:26 9.32 ir
13/12/17 Skrējiens des 2.02 10:01 04:57 12.10 ir
13/12/17 Skrējiens JanJ 8.70 45:03 05:10 11.59
13/12/17 Līču meža aplis bro 9.52 1:05:40 06:53 8.70 ir
13/12/17 Skrējiens AgrisN 23.12 2:00:01 05:11 11.56 ir
13/12/17 Skrējiens Dubultaģente 7.69 1:02:03 131 08:04 7.44 ir
13/12/17 Skrējiens Bubu 6.01 37:17 06:12 9.67 ir
13/12/17 Skrējiens RaivisR 13.06 58:04 04:26 13.49 ir
13/12/17 Skrējiens Jānis_O 2.11 09:39 04:34 13.12 ir
13/12/17 Skrējiens archs 15.19 1:36:26 06:20 9.45
13/12/17 Vakara izkustēšanās Cassandra 9.20 55:22 06:01 9.97 ir
13/12/17 Skrējiens WiskijsAlus 6.19 36:27 05:53 10.19
13/12/17 Skrējiens anup 8.01 41:43 05:12 11.52 ir
13/12/17 Skrējiens Anncce 13.16 1:25:45 06:30 9.21
13/12/17 Skrējiens gatis.e 5.07 31:10 06:08 9.76
13/12/17 Skrējiens art.is 7.00 38:09 05:27 11.01 ir
13/12/17 Skrējiens kika1993 5.02 29:31 05:52 10.20
13/12/17 Skrējiens MartinsOzolins 7.81 49:55 06:23 9.39 ir
13/12/17 Skrējiens Pokainis 10.02 1:04:00 133 06:23 9.39 ir
13/12/17 Skrējiens armands l 11.51 1:09:25 06:01 9.95
13/12/17 Skrējiens Chucky 10.23 57:47 05:38 10.62 ir
13/12/17 Skrējiens Inars 5.76 43:35 07:33 7.93 ir
13/12/17 Skrējiens Sinta1 3.07 17:01 05:32 10.82 ir
13/12/17 Skrējiens aicis1 21.22 1:54:01 05:22 11.17 ir
13/12/17 Skrējiens Mr.Linde 11.67 1:07:28 05:46 10.38 ir
13/12/17 Skrējiens noskrēju! 6.15 29:34 04:48 12.48 ir
13/12/17 uz darbu Rasels 9.80 56:10 126 05:43 10.47 ir
13/12/17 Pa Salaspili Aivars 3.00 ir
13/12/17 vēlais easy puuce 5.03 26:25 143 05:15 11.42 ir
13/12/17 TGC 2.61 Rīts Spidey4fun 5.12 31:41 06:11 9.70 ir
13/12/17 8.00 km zvaigzne 8.00 46:51 05:51 10.25 ir
13/12/17 Mežaparks + pēdējie 3 km bez garmina Ina 9.15 1:17:53 139 08:30 7.05 ir
13/12/17 2018 zem 2:59:00 laacis1981 8.10 40:05 139 04:56 12.12 ir
13/12/17 17 Elvis 21.26 1:54:23 05:22 11.15
13/12/17 Skrējiens mtiger 7.60 40:39 05:20 11.22 ir
13/12/17 Skrejiens Shembis 5.85 35:39 138 06:05 9.85 ir
13/12/17 No darba vitaminka D 5.17 25:03 142 04:50 12.38
13/12/17 no darba uz darbu vitaminka D 2.74 12:43 151 04:38 12.93
13/12/17 Trešdienis Rainy777 8.22 1:00:10 07:19 8.20 ir
13/12/17 Slidotava stadionā Alexander the Great 2.50 14:34 137 05:49 10.30 ir
13/12/17 10.11 km Andrisss 10.11 55:36 05:29 10.91 ir
13/12/17 Skrējiens SITYZOR1 16.67 1:43:28 149 06:12 9.67 ir
13/12/17 Pa Valmieru kļučiks 16.59 1:45:10 06:20 9.46 ir
13/12/17 Vakars Maikijs 11.15 1:10:40 06:20 9.47 ir
13/12/17 Pa asfaltētām ielām Pičuks Dz 3.30 22:57 06:57 8.63
13/12/17 Divplākšņu koptreniņš lielaa saule 11.00 1:19:01 07:11 8.35 ir
13/12/17 vakara mierīgais no darba stjopachio 7.20 35:34 116 04:56 12.15 ir
13/12/17 rīta maziņais uz darbu stjopachio 5.11 25:10 122 04:55 12.18 ir
13/12/17 5x600 villijs78 11.60 1:03:44 147 05:29 10.92 ir
13/12/17 Balvi_vakara_vientuļais Dace_Sofija 5.15 36:34 154 07:06 8.45 ir
13/12/17 Skrējiens piile 9.00 51:50 170 05:45 10.42 ir
13/12/17 Daugavpils Running Group Prestons 7.77 44:55 143 05:46 10.38 ir
13/12/17 Vējainā trešdiena Ginchaa 13.62 1:19:40 133 05:50 10.26
13/12/17 .. Mada 10.04 1:01:04 06:04 9.86 ir
13/12/17 Motivācijas meklējumu trešdiena Jay-P 5.18 32:00 133 06:10 9.71 ir
13/12/17 3dienas workouts M&M 10.02 1:01:30 06:08 9.78 ir
13/12/17 Serpentīnzāģis Inga_K 9.28 59:13 146 06:22 9.40 ir
13/12/17 Vakara skrējiens ugis_v 11.52 57:23 159 04:58 12.05 ir
13/12/17 13.12 didzisc 2.99 19:31 06:31 9.19 ir
13/12/17 Trešdien Biruta 10.03 1:01:47 06:09 9.74 ir
13/12/17 Grīziņkalns jeerika 10.53 1:02:15 05:54 10.15
13/12/17 Divplākšņu zaķis Lasma3 12.58 1:30:05 152 07:09 8.38 ir
13/12/17 Running Aivysuperman 10.14 58:29 05:46 10.40 ir
13/12/17 Trešdienis _Edgars_ 18.05 1:26:27 04:47 12.53 ir
13/12/17 Tempa skrējiens pa veloceliņu jestrais 10.50 1:05:16 140 06:12 9.65 ir
13/12/17 tr briediitc 5.01 47:51 120 09:33 6.28 ir
13/12/17 skrienu +2 Kris-tin 5.01 47:57 09:34 6.27 ir
13/12/17 Ašais Krī 10.09 50:05 04:57 12.09 ir
13/12/17 s/c andris13 10.60 45:00 04:14 14.13 ir
13/12/17 Rāmu garu EvijaK 5.50 41:56 07:37 7.87
13/12/17 Uz Brīvdabas muzeju DLK 10.42 56:06 05:23 11.14 ir
13/12/17 skrejceliņš + 1/2h vēderprese Diddi 9.03 1:00:02 06:38 9.02 ir
13/12/17 Skrējiens Miksons 10.95 52:20 04:46 12.55 ir
13/12/17 3 X 3 km ar 15 km/h vakarā Ugisdatavs 10.20 42:30 04:10 14.40 ir
13/12/17 Skrējiens 12.00 58:45 04:53 12.26 ir
13/12/17 Lēnais ar sievu tumsā līdz Kalngalei otto 11.49 1:16:02 112 06:37 9.07 ir
13/12/17 Stīvo kāju skrējiens. kalnu_žubīte 8.25 1:00:50 159 07:22 8.14 ir
13/12/17 Pa rajonu m.jordan 6.00 28:03 04:40 12.83 ir
13/12/17 Skrējiens Guna 10.68 1:12:36 06:47 8.83 ir
13/12/17 Asfalts Dzo 12.70 58:46 04:37 12.97 ir
13/12/17 Intervāli ar Edgaru Sprūdu KarlisBumans 12.00 1:07:05 151 05:35 10.73 ir
13/12/17 ] ar sāpošu plecu cumulus 27.00 2:11:08 04:51 12.35 ir
13/12/17 Viss ir slikti. Hiēna 5.10 34:03 06:40 8.99 ir
13/12/17 skrējiens uz Teitupi Oldington 1.87 17:49 134 09:32 6.29
13/12/17 Treniņš uz tehniku runner-arrnis 21.00 1:32:25 153 04:24 13.63 ir
13/12/17 asfalts kveks 10.00
13/12/17 Intervāli Ječos Alarion 4.44 40:08 143 09:02 6.64 ir
13/12/17 skrējiens F Boriss 10.75 58:40 143 05:27 10.99 ir
13/12/17 Razminka Tatjana1999 2.30 14:10 156 06:09 9.74
13/12/17 Vakars ar Jevgeņiju OreMan 3.40 20:08 05:55 10.13 ir
13/12/17 TGC v2.05 (Taciņas) Džokers 13.50 1:06:22 04:54 12.20 ir
13/12/17 Tipu tapu+plunkšķis GintsK 13.32 1:26:22 06:29 9.25 ir
13/12/17 Apkārt Juglas ezeram p.sintija 23.20 2:09:58 05:36 10.71 ir
13/12/17 Treniņš p.sintija 2.29 12:53 05:37 10.66 ir
13/12/17 Neuzvilku vesti un tāpēc vairāk nesanāca :(. Gīča 6.10 29:58 163 04:54 12.21
13/12/17 Kokneses prospekts Raitis58 6.81 42:43 06:16 9.57 ir
13/12/17 lenta Rozens 16.00 1:27:54 129 05:29 10.92 ir
13/12/17 enjoying another day off vetrasputns 10.00 1:10:32 134 07:03 8.51 ir
13/12/17 Treniņš andis.deze 12.00 48:42 04:03 14.78 ir
13/12/17 Skrējiens pa Kīmiķu rajonu Alice 5.00 27:42 05:32 10.83
13/12/17 Pēcpusdienas līkloči pilsētā englishteacher 14.00 1:10:14 05:01 11.96 ir
13/12/17 65 arturs.locmelis 9.72 1:06:00 115 06:47 8.84 ir
13/12/17 Pa meža ceļu Šalku virzienā Pičuks Dz 4.30 29:12 06:47 8.84
13/12/17 12.00.Soļošana pa šoseju MAKRO 12.00 1:26:25 07:12 8.33 ir
13/12/17 Bajāri jurcha 13.05 1:16:58 136 05:53 10.17
13/12/17 12:00 Mežaparks(+2) GačusSkrunda 12.00 57:23 04:46 12.55 ir
13/12/17 Skrējiens Chuncha 11.00 58:55 05:21 11.20 ir
13/12/17 Skrējiens Shuma 9.70 56:42 143 05:50 10.26 ir
13/12/17 rīta ķeksītis Ugisdatavs 9.80 50:50 05:11 11.57 ir
13/12/17 8:09 Velo ar suni (+3)(75.8) unknown 7.30 36:59 153 05:03 11.84
13/12/17 Intervāli uz darbu .Linda 8.47 48:49 144 05:45 10.41 ir
13/12/17 starp vēja brāzmām Lauma 4.73 28:58 143 06:07 9.80 ir
13/12/17 Skrējiens. garaissss 10.45 59:49 131 05:43 10.48 ir
13/12/17 #251.N12D3 JurBer 13.99 1:40:00 139 07:08 8.39 ir
13/12/17 Otrdien Biruta 10.14 1:00:33 05:58 10.05 ir
13/12/17 Skrējiens prieditism 3.01 18:20 06:05 9.85
13/12/17 Imanta 4 - Lidosta (DHL) Valdis.M 6.29 27:02 04:17 13.96 ir
13/12/17 Skrējiens Kristaps Bruss 7.17 47:30 06:37 9.06 ir
13/12/17 Skrējiens ttyson 10.13 1:12:26 07:09 8.39
13/12/17 Skrējiens des 1.41 07:12 05:06 11.75 ir
13/12/17 6.16 und 6.16 32:26 05:15 11.40 ir
13/12/17 melnais ledus :(, bet pulss priecē zandarts 12.08 1:09:49 125 05:46 10.38 ir
13/12/17 Skrējiens chunka 6.34 35:30 05:35 10.72 ir
13/12/17 SLN34 lerychv 8.27 44:12 123 05:20 11.23 ir
13/12/17 Nopietnības kalngali Normunds7 19.47 1:34:14 04:50 12.40 ir
13/12/17 rr Li kāja, kāja edGars 6.11 40:34 138 06:38 9.04 ir
13/12/17 Skrējiens KarīnaK 5.14 29:16 05:41 10.54 ir
13/12/17 Darbs. Spilve - Daugavas SN. Raibacainais Ezītis 15.19 1:22:47 05:26 11.01 ir
13/12/17 trešdieniņš normundiņš 11.11 1:09:29 159 06:15 9.59 ir
13/12/17 sk ario 11.26 1:01:30 05:27 10.99 ir
13/12/17 no rīta 2*, Maltā Republikas diena JK 1.64 11:08 06:47 8.84 ir
13/12/17 intervali 12X200 Aleks Kor 9.34 50:04 156 05:21 11.19 ir
13/12/17 rīta pikols 14.33 1:43:49 125 07:14 8.28 ir
13/12/17 Plikais koptreniņš OreMan 4.90 26:42 05:26 11.01 ir
13/12/17 Rīta 5 Aruurs 5.00 26:56 05:23 11.14 ir
12/12/17 Ādaži Naurītis 13.54 1:01:38 04:33 13.18 ir
12/12/17 Starting my off-season. Till Babelitis: cold water immersion. ansiso 6.00 ir
12/12/17 Gatavošanās SKM Trakais 16.45 1:15:13 04:34 13.12 ir
12/12/17 Skrējiens Booo_Kat 3.00 16:16 05:25 11.07
12/12/17 Skrējiens Booo_Kat 6.18 27:36 04:27 13.43
12/12/17 Skrējiens Booo_Kat 0.82 05:17 06:26 9.31
12/12/17 Uz majam caur parku Csinipatas 2.65 16:01 06:02 9.93 ir
12/12/17 Stiga + pievilksanas 1. 13, 2. 10, 3. 8, 4. 8 + atspiedieni un dipi Csinipatas 10.13 54:31 05:22 11.15 ir
12/12/17 031_Madona_003 Pedro 7.80 57:34 137 07:22 8.13
12/12/17 Treniņš Misters 3.00 16:25 05:28 10.96 ir
12/12/17 Ļoti vēlais un vējainais LindaL 10.07 1:01:31 06:06 9.82 ir
12/12/17 18:30 kofeins 16.00 1:54:00 07:07 8.42
12/12/17 Skrējiens anikka 3.96 28:07 07:06 8.45 ir
12/12/17 Skrējiens EvijaTaurene 4.07 26:11 06:25 9.33 ir
12/12/17 215.treniņš Daiguciitis 7.70 52:06 06:45 8.87 ir
12/12/17 Skrējiens Dubultaģente 4.59 37:23 127 08:08 7.37 ir
12/12/17 Lietū un vējā Cassandra 9.73 59:53 06:09 9.75 ir
12/12/17 Pa Salaspili Aivars 3.00 ir
12/12/17 Otrdienis Rainy777 2.60 20:00 07:41 7.80 ir
12/12/17 No darba vitaminka D 5.27 25:17 140 04:47 12.51
12/12/17 Pa rajonu DLK 1.44 09:04 06:17 9.53 ir
12/12/17 Koptreniņš "Nāc izvējoties Liepājā" Ginc 12.37 1:28:05 07:07 8.43 ir
12/12/17 velotrenažieris Oldington 17.77 45:00 112 02:31 23.69
12/12/17 st. kveks 10.00
12/12/17 asfalts kveks 10.00
12/12/17 skrējiens Boriss 12.15 1:09:09 139 05:41 10.54 ir
12/12/17 Razminka Tatjana1999 3.45 19:47 156 05:44 10.46
12/12/17 It's killing me with every breath, witnessing the life I lived Cukuriņš 26.05 2:08:11 04:55 12.19 ir
12/12/17 Bajāri jurcha 13.02 1:22:07 131 06:18 9.51
12/12/17 Atjaunojošais no darba .Linda 8.00 50:26 133 06:18 9.52 ir
12/12/17 ....... certa 10.07 1:01:37 145 06:07 9.81 ir
12/12/17 run Kikii.ks 9.12 55:54 06:07 9.79 ir
12/12/17 Tā mierīgāk Andris__Z 4.02 30:07 132 07:29 8.01 ir
12/12/17 Skrējiens anup 8.01 44:01 05:29 10.92 ir
12/12/17 12.03 und 12.03 57:19 04:45 12.59 ir
12/12/17 Vējā Ultralapsa 10.00 1:07:10 144 06:43 8.93 ir
12/12/17 Skrējiens Inis 10.68 1:13:44 06:54 8.69 ir
12/12/17 Treniņš asfalts ugaldins 12.03 1:07:34 05:36 10.68 ir
12/12/17 Skrējiens Natthe 5.71 37:06 136 06:29 9.23 ir
12/12/17 sk ario 8.00 42:00 05:15 11.43 ir
12/12/17 T avalanche 12.73
12/12/17 Pārdaugava. sigita 10.35 1:01:58 05:59 10.02 ir
12/12/17 Koptreniņš - Liepājas Venēcija trololo 12.69 1:34:07 127 07:24 8.09 ir
12/12/17 #18 9km līdz 160 Zazuuu 9.00 57:03 149 06:20 9.47 ir
12/12/17 Nāc izvējoties Liepājā! (125. koptreniņš) spruuds 15.00 1:24:20 05:37 10.67 ir
12/12/17 Skrējiens I_V 10.18 1:02:06 06:06 9.84 ir
12/12/17 Skrējiens mozgovoj ribak 13.42 55:32 04:08 14.50 ir
12/12/17 Skrējiens raitisbe 7.39 39:32 05:20 11.22 ir
12/12/17 Skrējiens runner-arrnis 9.00 42:27 04:43 12.72 ir
12/12/17 Treniņskrējiens no punkta A uz punktu B Rembis 5.16 23:46 04:36 13.03 ir
12/12/17 Brasas sarkanais aplis (21h/57) matiss 9.18 46:24 130 05:03 11.87 ir
12/12/17 Skrējiens ezisskrien 11.84 1:07:58 05:44 10.45 ir
12/12/17 Skrējiens Bubu 5.07 32:58 06:30 9.23 ir
12/12/17 Skrējiens Piiraadzinjsh 5.35 42:41 07:58 7.52
12/12/17 Skrējiens des 1.08 05:33 05:08 11.68 ir
12/12/17 Skrējiens des 1.30 06:21 04:53 12.28 ir
12/12/17 Skrējiens daskilla 6.36 34:55 05:29 10.93 ir
12/12/17 Skrējiens kopijs 7.99 1:01:04 07:38 7.85 ir
12/12/17 Skrējiens bOskars 5.00 35:13 07:02 8.52 ir
12/12/17 Skrējiens archs 15.06 1:36:25 06:24 9.37
12/12/17 Skrējiens Mairita 8.13 1:15:06 09:14 6.50
12/12/17 Skrējiens incha 8.21 1:02:22 07:35 7.90 ir
12/12/17 Skrējiens MBirums 5.92 42:06 07:06 8.44 ir
12/12/17 Skrējiens modža 18.00 1:31:17 05:04 11.83
12/12/17 Skrējiens didzzzons 12.49 1:05:11 05:13 11.50
12/12/17 Skrējiens Casperr 10.41 55:34 05:20 11.24 ir
12/12/17 Skrējiens Sandijs 11.23 1:10:00 06:13 9.63 ir
12/12/17 Skrējiens Jānis_O 10.20 49:51 04:53 12.28 ir
12/12/17 Skrējiens JanJ 9.26 48:29 05:14 11.46
12/12/17 Skrējiens uzzy 6.18 29:46 04:48 12.46 ir
12/12/17 Skrējiens desmits 5.26 33:50 06:25 9.33 ir
12/12/17 Skrējiens guntars.bumans 17.01 1:33:15 05:28 10.94
12/12/17 Skrējiens kalvicc94 12.81 55:01 04:17 13.97 ir
12/12/17 Skrējiens Andriic 9.88 53:08 05:22 11.16
12/12/17 Skrējiens AgrisN 12.00 1:05:02 05:25 11.07 ir
12/12/17 Skrējiens Martins.Krumins 15.01 1:07:56 04:31 13.26 ir
12/12/17 Skrējiens Martins.Krumins 4.52 25:55 05:44 10.46 ir
12/12/17 Skrējiens Ize_De 10.40 1:12:31 146 06:58 8.60
12/12/17 Lietains vakard arta_i 5.82 35:55 06:10 9.72
12/12/17 Skrējiens Mārtiņš Pakulis 6.74 37:13 05:31 10.87 ir
12/12/17 Skrējiens rmamedov 6.01 33:14 163 05:31 10.85 ir
12/12/17 Skrējiens Ievinja 8.74 54:34 06:14 9.61 ir
12/12/17 Skrējiens sanita.m 14.10 1:22:33 05:51 10.25 ir
12/12/17 Skrējiens OMG 5.14 30:26 05:55 10.13
12/12/17 Skrējiens chunka 9.11 49:47 05:27 10.98 ir
12/12/17 Skrējiens coffee 5.02 32:44 06:31 9.20 ir
12/12/17 Skrējiens AlteR-EgO 9.89 51:32 05:12 11.51
12/12/17 vējains tomick 8.07 40:43 142 05:02 11.89 ir
12/12/17 RV95 L ONils 11.20 1:00:02 160 05:21 11.19 ir
12/12/17 Biķernieku trases lielais aplis Nbisenieks 10.02 54:38 167 05:27 11.00 ir
12/12/17 Otrdienis Lasma3 6.66 48:55 157 07:20 8.17 ir
12/12/17 W4. D2. Pāri pa tiltu. biciic 18.57 1:50:26 05:56 10.09 ir
12/12/17 Ķekavas meža izmirkušie ceļi Jānis_v 11.60 1:06:00 05:41 10.55 ir
12/12/17 3000m (8:55)/3x1000m(2:57;2:57;2:56)/2000m(5:55)/2x1000m(2:55;2:54) DS93 10.00 40:00 04:00 15.00
12/12/17 #69 Pēča 10.11 1:02:38 161 06:11 9.68 ir
12/12/17 iesild./atsild. DS93 7.00 40:00 05:42 10.50
12/12/17 w-1-4-1 stjopachio 10.95 53:29 125 04:53 12.28 ir
12/12/17 176 - #adidasrunners otrdiena zusurs 10.21 1:00:58 05:58 10.05 ir
12/12/17 Mājup. Daugavas SN - Spilve. Raibacainais Ezītis 15.29 1:29:40 05:51 10.23 ir
12/12/17 17:42, apraksts Dziņa 13.20 1:26:41 150 06:34 9.14 ir
12/12/17 no darba Rasels 12.50 1:12:00 125 05:45 10.42 ir
12/12/17 Paskrien 10km GintsB 10.02 57:43 124 05:45 10.42 ir
12/12/17 Lēnais līdz Šmerlim Joske 8.66 55:15 141 06:22 9.40 ir
12/12/17 easy peasy puuce 5.14 27:03 141 05:15 11.40 ir
12/12/17 Ar DaGambu anciite 7.51 46:33 06:11 9.68 ir
12/12/17 16 Elvis 16.21 1:29:18 05:30 10.89 ir
12/12/17 Skrējiens SITYZOR1 10.43 1:02:09 05:57 10.07 ir
12/12/17 Slidinoties lietū. Brāļa un 16.12. pasākumu un to dalībnieku vajadzību nodomā Ligy 10.13 1:08:45 154 06:47 8.84 ir
12/12/17 Lēnām. Uldzha 4.12 28:34 127 06:56 8.65 ir
12/12/17 Ap māju Ina 9.00 1:08:58 151 07:39 7.83 ir
12/12/17 Šodien gan vējš piebesīja Ginchaa 10.00 59:12 135 05:55 10.14
12/12/17 Lēnām. Turpat, kur vakar. Ļoti vējains. +1, 19:08 antra 11.60 1:27:57 149 07:34 7.91 ir
12/12/17 Skrienlatvija28 Alvis D 12.02 1:02:50 05:13 11.48 ir
12/12/17 Vakara +6 sajūtas 0 DR  11/20 daudz lietus Aldis B 7.67 49:03 160 06:23 9.38 ir
12/12/17 Skrējiens NR. 8 Laaurappeeterzone 6.05 37:46 145 06:14 9.61 ir
12/12/17 Saltais pēc Elzas, atpakaļ ar ratiem bunbinja 3.75 29:20 07:49 7.67 ir
12/12/17 12.12 didzisc 5.66 35:56 06:20 9.45 ir
12/12/17 Uzmanigi liekot kaaju maruks 11.00 1:05:28 05:57 10.08
12/12/17 Skrējiens EvijaK 7.32 53:24 07:17 8.22
12/12/17 AR ilZZuks 8.30 51:00 06:08 9.76 ir
12/12/17 Run Jolis 12.08 1:04:30 05:20 11.24
12/12/17 Balvi_izbaudot_atkusni Dace_Sofija 6.08 42:00 06:54 8.69 ir
12/12/17 "Nāc izvējoties Liepājā" koptreniņš KarlisBumans 11.00 1:02:50 05:42 10.50 ir
12/12/17 Mežaparks 3M otto 15.05 1:13:47 150 04:54 12.24 ir
12/12/17 Otrdienis _Edgars_ 13.85 1:08:45 04:57 12.09 ir
12/12/17 Spānija Jurģis 14.29 1:15:00 05:14 11.43 ir
12/12/17 227. ilvarito 3.34 14:50 04:26 13.51 ir
12/12/17 Vakara fartleks ar Kasparu OreMan 11.50 59:10 05:08 11.66 ir
12/12/17 Asfalts Dzo 18.00 1:25:44 04:45 12.60 ir
12/12/17 Vakara asfalts Spāre lido 6.55 43:14 06:36 9.09 ir
12/12/17 Skrējiens borga 17.48 1:30:00 158 05:08 11.65 ir
12/12/17 lenta Rozens 17.00 1:33:13 132 05:29 10.94 ir
12/12/17 Vai kā ivitis 6.00 36:20 06:03 9.91
12/12/17 2diena Gatis.K 12.18 1:09:38 137 05:43 10.49 ir
12/12/17 10x300m (50'') Kru 11.56 1:04:21 05:33 10.78 ir
12/12/17 Skrējceliņš - uz pirkstiem Andrejs Verza 3.00 15:34 05:11 11.56 ir
12/12/17 s/c andris13 10.54 45:00 04:16 14.05 ir
12/12/17 pēc 21km kļučiks 5.72 38:43 126 06:46 8.86 ir
12/12/17 Kad ir laiks. sanitux 4.00 33:15 148 08:18 7.22 ir
12/12/17 2*5000 bik ātrāk. Rainers 14.01 1:10:32 05:02 11.92 ir
12/12/17 Skrējiens 10.00 48:22 04:50 12.41 ir
12/12/17 Baldone aicis 7.00 36:30 05:12 11.51 ir
12/12/17 Melnā lenta 6 rotācijukaraliene 1.24 15:39 120 12:37 4.75 ir
12/12/17 Skrējiens kā vesela mūžība vilkās.. un beidzmie 2km pa lietu. Gīča 11.00 54:50 146 04:59 12.04
12/12/17 Basām Skultes mežs + 4km kalniņi einmed 22.68 2:37:19 124 06:56 8.65 ir
12/12/17 Vakara skrējiens DK86 12.20 1:05:17 140 05:21 11.21
12/12/17 Pa sliedēm. +5, lietus. bowskis 8.10 47:10 05:49 10.30 ir
12/12/17 Infinity Fitness warm up/warm down guncha 6.00 32:00 05:20 11.25 ir
12/12/17 Treniņš andis.deze 8.00 34:20 04:17 13.98 ir
12/12/17 Orentēšanās Art0531 6.79 42:19 148 06:13 9.63
12/12/17 Apkārt Ķesterciemam RimantsL 8.02 46:58 149 05:51 10.25 ir
12/12/17 Skrējiens  Dzintars 21.15 2:10:10 06:09 9.75 ir
12/12/17 no rīta 3*, Kenijā Neatkarības diena JK 1.60 10:41 06:40 8.99 ir
12/12/17 Skrējiens Guna 11.38 1:15:35 06:38 9.03 ir
12/12/17 Treniņš P vnkIndra 13.64 1:31:29 143 06:42 8.95 ir
12/12/17 Līst... vargans 9.57 1:09:27 145 07:15 8.27 ir
12/12/17 Iesildisanas pirms SVT Miksons 2.52 14:18 05:40 10.57 ir
12/12/17 TGC v2.04 (Mežaparks) Džokers 12.00 53:46 04:28 13.39 ir
12/12/17 Relax Kristiāns 3.49 19:16 05:31 10.87 ir
12/12/17 kur nu vēl dranķīgākā laikā neirula 8.81 1:05:15 157 07:24 8.10 ir
12/12/17 Skrējiens Otomere 15.54 1:30:21 141 05:48 10.32 ir
12/12/17 Pa meža ceļu Pičuks Dz 3.30 22:19 06:45 8.87
12/12/17 viduvējais pie -2C Ugisdatavs 16.10 1:22:50 134 05:08 11.66 ir
12/12/17 Lēns, ļoti lietains, vējains skrējiens-mazohisms Roziiite 5.30 41:42 07:52 7.63 ir
12/12/17 SKRĒJIENS,SLIDOJIENS Mermaid 11.50 1:05:45 05:43 10.49 ir
12/12/17 8:03 velo ar suni (+3) unknown 6.01 30:27 155 05:03 11.84
12/12/17 Otrdienas rīta (d)rosme Jay-P 5.09 26:00 143 05:06 11.75 ir
12/12/17 kross uz darbu bunfunk 10.00 44:03 131 04:24 13.62
12/12/17 Skrējiens garaissss 10.45 59:24 138 05:41 10.56 ir
12/12/17 Skrējiens druupijs 31.05 2:13:45 04:18 13.93 ir
12/12/17 labi iepūta šorīt zandarts 12.40 1:11:22 142 05:45 10.43 ir
12/12/17 Skrējiens oskarsdamb 8.36 48:24 05:47 10.36 ir
12/12/17 Skrējiens +1 C InTi68 9.10 1:00:54 140 06:41 8.97 ir
12/12/17 Imanta 4 - Lidosta (DHL). Ar pilnu vēderu tortes. Valdis.M 6.29 28:35 04:32 13.20 ir
12/12/17 Skrējiens Jaudinieks 14.00 1:17:18 05:31 10.87 ir
12/12/17 Skrējiens Ainīc 8.55 51:23 06:00 9.98 ir
12/12/17 Vietām traki slidens un tumšs. vitjka 6.48 39:52 06:09 9.75 ir
12/12/17 Skrējiens johaidi 7.37 43:15 05:52 10.22 ir
12/12/17 Skrējiens prieditism 5.05 31:32 06:14 9.61
12/12/17 #250.N12D2 JurBer 10.00 1:11:53 140 07:11 8.35 ir
12/12/17 Skrējiens EmilsE 6.72 39:12 05:50 10.29 ir
12/12/17 treadmill DServ 10.00 54:39 05:27 10.98 ir
12/12/17 TGC 2.60 Rīts ar Uzdevumu Spidey4fun 12.60 1:17:17 06:08 9.78 ir
12/12/17 SLN33 lerychv 12.45 1:09:10 132 05:33 10.80 ir
12/12/17 Labrīt, otrdienā! SelfijuPavēlniece 8.40 1:01:38 147 07:20 8.18 ir
12/12/17 Atjaunojošais DK86 5.22 41:00 119 07:51 7.64 ir
12/12/17 Skrējiens mtiger 7.78 40:45 05:14 11.46 ir
12/12/17 rīta pikols 12.70 1:30:05 128 07:05 8.46 ir
12/12/17 Skrējiens Chuncha 10.00 59:54 05:59 10.02 ir
12/12/17 Skrējiens frišais 7.16 40:25 05:38 10.63 ir
12/12/17 Pasta rūķis: dublis nr.2 (samocīta kāja) skai-tlot-ajs 13.25 1:08:38 05:10 11.58 ir
12/12/17 ... in 12.01 1:17:35 06:27 9.29 ir
12/12/17 skrienam Jurs 5.00 30:19 06:03 9.90 ir
12/12/17 neguļās, neskrienās, nesnieg Sanča_Ro 7.60 54:16 145 07:08 8.40 ir
11/12/17 11.12. thunder man 9.30 52:52 05:41 10.55 ir
11/12/17 Malaga topinjs 1.19 06:58 05:51 10.25 ir
11/12/17 Uz Brīvdabas muzeju DLK 10.47 58:54 05:37 10.67 ir
11/12/17 st. kveks 10.00
11/12/17 asfalts kveks 10.00
11/12/17 Something must've gone wrong in my brain, got your chemicals all in my veins Cukuriņš 18.56 2:17:12 07:23 8.12 ir
11/12/17 Vakara izklaide Mošķis 3.00 22:00 07:20 8.18 ir
11/12/17 Zolitūde lielaa saule 8.20 46:20 05:39 10.62 ir
11/12/17 Varētu teikt, ka pat gribās Ultralapsa 7.52 50:09 142 06:40 9.00 ir
11/12/17 Skrējiens Booo_Kat 12.31 1:00:00 04:52 12.31
11/12/17 Skrējiens Jānis_O 3.12 14:30 04:38 12.91 ir
11/12/17 Skrējiens kominieks 6.22 45:28 07:18 8.21 ir
11/12/17 Melnā lenta 5 rotācijukaraliene 2.62 15:21 136 05:51 10.24 ir
11/12/17 Skrējiens Otomere 8.01 59:05 130 07:22 8.13 ir
11/12/17 Bija jāsaņemas Normunds7 21.00 1:40:54 04:48 12.49 ir
11/12/17 Skrējiens DS93 10.00 41:00 04:06 14.63
11/12/17 kross + VFS bunfunk 10.00 43:52 131 04:23 13.68 ir
11/12/17 8.00 km zvaigzne 8.00 50:53 06:21 9.43 ir
11/12/17 Skrējiens Stupinss 3.17 15:01 04:44 12.67 ir
11/12/17 T avalanche 9.22
11/12/17 Nike & Adidas Training runs lvingr 16.00 1:45:00 140 06:33 9.14 ir
11/12/17 Supervaroņi Grīziņkalnā forshais1 9.81 1:36:56 09:52 6.07 ir
11/12/17 Fartleks sundowner 6.40 40:20 06:18 9.52 ir
11/12/17 Treniņskrējiens no punkta A uz punktu B Rembis 4.94 26:27 05:21 11.21 ir
11/12/17 Skrējiens Mr.Linde 10.46 1:08:29 144 06:32 9.16 ir
11/12/17 Skrējiens Birkofs 5.16 35:25 06:51 8.74
11/12/17 Skrējiens AgrisN 13.62 1:10:00 05:08 11.67 ir
11/12/17 Skrējiens Casperr 4.78 23:08 04:50 12.40 ir
11/12/17 Skrējiens daskilla 6.01 34:21 05:42 10.50 ir
11/12/17 Skrējiens Ize_De 6.56 46:04 141 07:01 8.54
11/12/17 Skrējiens gudeens 10.19 58:55 05:46 10.38
11/12/17 Skrējiens des 1.31 07:33 05:45 10.41 ir
11/12/17 Skrējiens martinsoz 11.19 1:00:25 05:23 11.11 ir
11/12/17 Skrējiens Andrejs Verza 13.14 1:05:37 04:59 12.02 ir
11/12/17 Skrējiens ViniNoskrejaVienuVasaru 5.52 31:36 05:43 10.48 ir
11/12/17 Skrējiens Ausrta 6.81 49:59 07:20 8.17
11/12/17 Skrējiens Lubyz 18.30 1:47:38 05:52 10.20 ir
11/12/17 Skrējiens chunka 4.65 27:48 05:58 10.04 ir
11/12/17 Skrējiens Pokainis 10.24 1:06:09 06:27 9.29 ir
11/12/17 Skrējiens ramiism 5.02 29:26 05:51 10.23 ir
11/12/17 Skrējiens MartinsOzolins 10.43 1:11:43 06:52 8.73 ir
11/12/17 Skrējiens skristaps 6.77 48:31 07:09 8.37 ir
11/12/17 Skrējiens noskrēju! 10.08 52:30 05:12 11.52 ir
11/12/17 Skrējiens agnijs 12.67 1:10:01 05:31 10.86 ir
11/12/17 Skrējiens Kaspars33 21.58 1:47:51 04:59 12.01 ir
11/12/17 Skrējiens Tārps 8.30 40:00 04:49 12.45 ir
11/12/17 Skrējiens archs 15.01 1:28:39 05:54 10.16
11/12/17 Skrējiens JanJ 9.28 49:06 05:17 11.34
11/12/17 Skrējiens xorix 18.03 1:40:23 05:34 10.78 ir
11/12/17 Skrējiens raraitis 14.06 1:16:53 05:28 10.97 ir
11/12/17 Skrējiens kominieks 5.77 32:36 05:38 10.62 ir
11/12/17 Skrējiens Ievinja 10.10 1:07:00 06:38 9.04 ir
11/12/17 Skrējiens andronkuls 6.60 37:52 05:44 10.46 ir
11/12/17 Skrējiens Liesma 5.09 36:35 07:11 8.35
11/12/17 Skrējiens burunduks 9.48 1:00:20 06:21 9.43 ir
11/12/17 Skrējiens jaudzin 12.52 1:10:56 05:39 10.59
11/12/17 Skrējiens mriden 7.04 48:07 06:50 8.78
11/12/17 Skrējiens rmamedov 6.24 37:19 149 05:58 10.03 ir
11/12/17 Skrējiens Rasmiks 8.05 38:08 04:44 12.67
11/12/17 Skrējiens Oviat 4.01 31:49 07:56 7.56 ir
11/12/17 Skrējiens Miezers 11.11 1:05:06 05:51 10.24 ir
11/12/17 uzlabotais PWorst kopā ar WRR pie -2C Ugisdatavs 6.29 24:42 03:55 15.28 ir
11/12/17 iesild., atsild. Ugisdatavs 4.80 26:30 05:31 10.87 ir
11/12/17 2018 zem 2:59:00 laacis1981 8.90 55:16 128 06:12 9.66 ir
11/12/17 Ādaži Naurītis 14.00 1:13:47 05:16 11.38 ir
11/12/17 Dzestrs vakariņš Cassandra 10.33 1:01:52 05:59 10.02 ir
11/12/17 Pirmdiena kā nebijusi, vismaz stundiņu paskriets (57/15h) matiss 10.13 1:03:18 110 06:14 9.60 ir
11/12/17 Alle hop Arle 8.63 1:02:46 07:16 8.25 ir
11/12/17 11.06 km Andrisss 11.06 1:02:36 05:39 10.60 ir
11/12/17 #16 5km līdz 160 Zazuuu 5.00 34:05 140 06:49 8.80 ir
11/12/17 TGV v2.03 (Supervaroņi) Džokers 13.00 1:31:00 07:00 8.57 ir
11/12/17 18.00 Manēžā/Fiziskie vingrin, un lecieni MAKRO 3.00 15:48 05:16 11.39 ir
11/12/17 Mežaparks. sigita 10.13 1:03:18 06:14 9.60 ir
11/12/17 Tik viegli skrējās, neskatoties uz baigo vēju Ginchaa 10.30 59:15 132 05:45 10.43
11/12/17 150. Didzis 8.35 ir
11/12/17 Lēnām izvēdināju galvu. Pulss šodien paaugstināts. -7, 19:14 antra 11.60 1:27:57 150 07:34 7.91 ir
11/12/17 Parastais 13nieks ar 5 nelieliem ātrākiem posmiņiem. alvita 13.47 1:11:05 146 05:16 11.37 ir
11/12/17 Pirmdienis _Edgars_ 14.20 1:11:45 05:03 11.87 ir
11/12/17 Vējaini jautrie kalniņi. bantiite 12.89 1:17:35 06:01 9.97 ir
11/12/17 Skrējiens Logins 9.77 1:15:34 136 07:44 7.76 ir
11/12/17 Supervaroņu Grīzinkalna kāpnes Gatis.K 7.67 1:25:14 134 11:06 5.40 ir
11/12/17 Pa asfaltētu ielu Pičuks Dz 3.10 22:00 07:05 8.45
11/12/17 Eksistenciālā pirmdiena Jay-P 6.09 36:00 133 05:54 10.15 ir
11/12/17 TGC 2.59 Super Varoni Spidey4fun 8.00 1:27:01 10:52 5.52 ir
11/12/17 W4. D1. Veloceliņš. biciic 14.31 1:16:38 05:21 11.20 ir
11/12/17 Vakara skrējiens ugis_v 7.00 39:15 153 05:36 10.70 ir
11/12/17 Jdjdd kalvicc94 8.09 40:00 04:56 12.14 ir
11/12/17 Bulkas nosala Inga_K 10.45 1:00:16 149 05:46 10.40 ir
11/12/17 lenta Rozens 16.00 1:30:00 05:37 10.67 ir
11/12/17 Supervaroņu treniņš Grīziņkalnā borga 8.61 1:19:30 157 09:14 6.50 ir
11/12/17 Vakars Krustpilī GU 6.62 39:34 05:58 10.04 ir
11/12/17 Pirmdienis Rainy777 15.50 2:02:00 07:52 7.62 ir
11/12/17 tenisa bumbiņu medības .Linda 5.03 32:48 127 06:31 9.20 ir
11/12/17 Mini LindaL 6.06 37:01 06:06 9.82 ir
11/12/17 easy run Alligator 10.00 50:34 05:03 11.87 ir
11/12/17 Mierīgi pa veloceliņu Jānis_v 10.30 52:16 130 05:04 11.82 ir
11/12/17 Lieliskais piecinieks Sauļuks 5.08 30:32 06:00 9.98 ir
11/12/17 pēc vecās traumas maruks 12.00 1:20:21 06:41 8.96
11/12/17 urrrrà...varu atkal Ilze1409 10.03
11/12/17 Asfalts Dzo 21.70 1:40:22 04:37 12.97 ir
11/12/17 Jaunmārupē ar sievu einmed 8.38 1:09:33 110 08:17 7.23 ir
11/12/17 Skrējiens SITYZOR1 10.19 1:02:21 149 06:07 9.81 ir
11/12/17 138 Guntis.Balodis 7.66 41:59 05:28 10.95
11/12/17 Zālē Gunjux 6.00 38:18 06:23 9.40 ir
11/12/17 Pa pilsētu Ivars L 8.33 51:08 06:08 9.77 ir
11/12/17 Skrējiens Guna 5.83 41:43 07:09 8.39 ir
11/12/17 .. Mada 7.01 41:39 05:56 10.10 ir
11/12/17 65 arturs.locmelis 14.42 1:18:13 134 05:25 11.06 ir
11/12/17 Pirms VFS treniņa DK86 8.00 44:41 05:35 10.74
11/12/17 Ar lampiņu pa kapu ceļu Ewiaa 4.26 25:30 05:59 10.02 ir
11/12/17 Skrējiens 8.00 39:58 04:59 12.01 ir
11/12/17 Lēnais skrējiens pa pludmali jestrais 14.30 1:36:53 06:46 8.86 ir
11/12/17 Pa Anniņmuižas mežiņu Inta Amoliņa 7.13 51:04 164 07:09 8.38 ir
11/12/17 Slidenītis un Ziemelītis.. Gīča 13.00 1:05:14 146 05:01 11.96
11/12/17 Skrējiens Dzintars 10.04 46:18 04:36 13.01 ir
11/12/17 Treniņš Art0531 30.00 2:38:04 159 05:16 11.39
11/12/17 Treniņš snow 0`C andis.deze 12.00 48:05 04:00 14.97 ir
11/12/17 Skrējiens vetrasputns 8.00 55:16 135 06:54 8.69 ir
11/12/17 skrējiens guncha 16.21 1:19:58 04:55 12.16 ir
11/12/17 97.2 -1- Ønske 7.98 53:00 06:38 9.03 ir
11/12/17 Run Jolis 24.23 2:00:01 04:57 12.11
11/12/17 Skrējiens Alarion 4.66 45:08 136 09:41 6.19 ir
11/12/17 Baiļu aplītis kļučiks 21.07 2:08:12 142 06:05 9.86 ir
11/12/17 Vārda dienas fartleka skrējiens pirms brauciena ar Tallink James87 13.55 1:00:00 152 04:25 13.55 ir
11/12/17 Kāpņu treniņš... vargans 4.42 58:18 143 13:11 4.55 ir
11/12/17 Treniņš p.sintija 11.42 1:05:30 05:44 10.46 ir
11/12/17 tr/d munkirs 9.10 51:04 150 05:36 10.69 ir
11/12/17 s/c andris13 10.00 42:42 04:16 14.05 ir
11/12/17 Pilns mežs ar suņiem, kas uz mani trenējās paklausību :D Roseline 8.01 47:56 05:59 10.03
11/12/17 Pa Salaspili Aivars 3.00 ir
11/12/17 8:07 Rīta skrējiens ar suni (-1) unknown 5.76 28:14 157 04:54 12.24 ir
11/12/17 ikrīta SiTi 10.14 1:18:22 142 07:43 7.76 ir
11/12/17 dsfs kalvicc94 7.98 35:00 04:23 13.68 ir
11/12/17 no rīta -2*, Burkinafaso — Republikas diena JK 1.69 11:08 06:35 9.11 ir
11/12/17 Skrējiens baler 2.67 17:56 06:42 8.93 ir
11/12/17 Skrējiens zandarts 12.34 1:10:21 150 05:42 10.52 ir
11/12/17 Skrējiens Ainīc 21.22 2:05:58 05:56 10.11 ir
11/12/17 Skrējiens prieditism 3.18 19:01 05:58 10.03
11/12/17 Uz darbu darbā darīt darbu, skriets ar torti padusē ! Valdis.M 6.29 28:23 04:30 13.30 ir
11/12/17 Skrējiens GvidoB 1.77 32:41 18:27 3.25 ir
11/12/17 rits und 4.67 25:18 05:25 11.08 ir
11/12/17 Skrējiens oskarsdamb 7.79 45:22 05:49 10.30 ir
11/12/17 rīta pikols 12.34 1:26:05 124 06:58 8.60 ir
11/12/17 Rīts EvijaK 5.23 40:02 07:39 7.84
11/12/17 Rīta agrais. Inzy 6.31 39:29 06:15 9.59 ir
11/12/17 rr Li pīsalis un slīzdīgs edGars 7.21 45:15 135 06:16 9.56 ir
11/12/17 7:01 Skanstes iela-Grostonas iela(-3) GačusSkrunda 7.05 30:52 04:22 13.70 ir
11/12/17 Skrējiens Chuncha 12.00 1:08:41 05:43 10.48 ir
11/12/17 ... in 4.01 30:04 07:29 8.00 ir
11/12/17 Skrējiens garaissss 10.45 59:07 05:39 10.61 ir
11/12/17 Skrējiens frišais 10.16 55:49 05:29 10.92 ir
11/12/17 magnets Desperado 9.00 1:00:00 06:40 9.00 ir
11/12/17 Skrējiens ZZ88 18.08 1:47:17 05:56 10.11 ir
10/12/17 RSM: adidas warm-up weekend with Zanda ZR and Valērijs Ž ansiso 4.00 ir
10/12/17 Gatavošanās SKM Trakais 22.00 1:39:15 04:30 13.30 ir
10/12/17 Pa trases kalniņiem ar Ļohu Csinipatas 9.00 53:40 05:57 10.06 ir
10/12/17 Skrējiens Smiteeens 1.52 09:48 06:26 9.31
10/12/17 Atsildīšanās topinjs 1.03 06:35 148 06:23 9.39 ir
10/12/17 Zurich Málaga Maratón topinjs 42.20 3:02:41 168 04:19 13.86 ir
10/12/17 Iesildīšanās topinjs 1.40 07:26 136 05:18 11.30 ir
10/12/17 Uz lspa DLK 3.23 18:19 05:40 10.58 ir
10/12/17 Skrienam, peldam koptreniņš Ginc 5.01 32:32 06:29 9.24 ir
10/12/17 10.12.2017 jurdoms 8.94 1:07:19 147 07:31 7.97
10/12/17 Skrējiens OMG 6.00 34:47 05:47 10.35
10/12/17 Aizkraukles ielas Normunds7 20.77 1:41:15 04:52 12.31 ir
10/12/17 Skrējiens ZZ88 14.22 1:49:53 07:43 7.76 ir
10/12/17 skrējiens Mermaid 5.00 27:57 05:35 10.73 ir
10/12/17 Skrējiens kasiic 0.49 08:49 17:59 3.33 ir
10/12/17 Orientēšanās kasiic 8.63 54:23 06:18 9.52 ir
10/12/17 Skrējiens kasparsk 15.64 1:32:13 05:53 10.18 ir
10/12/17 Skrējiens JanJ 6.19 33:01 05:20 11.25
10/12/17 Santaklausu skrējiens bowskis 5.00 38:00 07:36 7.89 ir
10/12/17 Skrējiens jaudzin 5.43 31:38 05:49 10.30
10/12/17 Skrējiens PaulEdgecomb 13.29 1:32:13 06:56 8.65
10/12/17 Morning run with dog sundowner 2.20 10:55 04:57 12.09 ir
10/12/17 Ozo Ziemas skrējiens GU 15.00 1:10:10 04:40 12.83 ir
10/12/17 ies ats ozo GU 1.90 18:00 09:28 6.33 ir
10/12/17 Basketboljchiksss 4*9min Tatjana1999 0.00 36:00 0.00
10/12/17 Desmitais Rai tis 8.04 56:23 135 07:00 8.56 ir
10/12/17 celiņš jurcha 10.03 59:55 125 05:58 10.04
10/12/17 Every step erases some past failure, every mile brings us closer to a clean state EsVaru 20.01 1:35:40 04:46 12.55 ir
10/12/17 Garais Ilze_j 16.02 1:45:13 137 06:34 9.14 ir
10/12/17 Skrējiens uz Stropu ezeru Alice 16.50 1:42:43 06:13 9.64
10/12/17 pa dienu 0*, ANO Cilvēktiesību diena JK 2.54 16:28 06:28 9.26 ir
10/12/17 T avalanche 13.56
10/12/17 Skrējiens Inis 7.55 51:44 06:51 8.76 ir
10/12/17 Ar ratiem Krī 10.22 58:11 05:41 10.54 ir
10/12/17 b gar babeliti js79 14.20 ir
10/12/17 Skrējiens jdex 7.64 44:16 05:47 10.36 ir
10/12/17 Pirmsronis trololo 5.37 34:37 142 06:26 9.31 ir
10/12/17 Svētdienis Rainy777 2.60 20:00 07:41 7.80 ir
10/12/17 airport and village road runnerchick 25.00 2:24:12 125 05:46 10.40 ir
10/12/17 Treniņskrējiens no punkta A uz punktu B Rembis 21.04 1:51:01 05:16 11.37 ir
10/12/17 Svētdienas mierīgais noris 8.23 42:32 05:10 11.61 ir
10/12/17 Skrējiens DS93 20.00 1:41:00 05:03 11.88
10/12/17 Skrējiens PriekaPuļķis 2.15 34:48 16:11 3.71 ir
10/12/17 Skrējiens CaunietisLV 5.37 25:00 04:39 12.89
10/12/17 Skrējiens MartinsOzolins 10.31 1:26:37 08:24 7.14 ir
10/12/17 No darba - garais jans.s 15.86 1:37:25 06:08 9.77 ir
10/12/17 Skrējiens Tuksnesa vetra 20.21 1:50:28 05:27 10.98 ir
10/12/17 Skrējiens archs 15.25 1:31:16 05:59 10.03
10/12/17 Skrējiens Lapsene 30.02 2:56:07 05:51 10.23 ir
10/12/17 Skrējiens desmits 5.31 33:50 06:22 9.42 ir
10/12/17 Skrējiens migors 10.45 1:13:49 07:03 8.49
10/12/17 Orientēšanās Miegs 8.65 54:17 06:16 9.56
10/12/17 Skrējiens elapins 10.66 1:07:13 06:18 9.52 ir
10/12/17 Skrējiens Andromeda 5.49 35:51 06:31 9.19 ir
10/12/17 Skrējiens anikka 7.30 50:49 06:57 8.62 ir
10/12/17 Skrējiens Rega14 42.55 5:37:14 07:55 7.57
10/12/17 Skrējiens des 2.59 12:21 04:46 12.58 ir
10/12/17 Skrējiens Martinits1 8.74 50:35 05:47 10.37 ir
10/12/17 Skrējiens uzzy 18.76 1:45:13 05:36 10.70 ir
10/12/17 Skrējiens pa Daugavpili - Stropi rmamedov 21.21 2:12:52 147 06:15 9.58 ir
10/12/17 easy puuce 11.29 59:45 05:17 11.34 ir
10/12/17 Skrējiens Mairita 7.10 1:13:43 10:22 5.78
10/12/17 Skrējiens NITRO 5.63 32:42 05:48 10.33 ir
10/12/17 Skrējiens Ievinja 8.25 59:37 07:13 8.30 ir
10/12/17 Skrējiens Bubu 10.16 58:38 05:46 10.40 ir
10/12/17 Skrējiens ROY 10.01 50:59 05:05 11.78
10/12/17 Skrējiens gudeens 11.18 1:03:16 05:39 10.60
10/12/17 Skrējiens ezisskrien 10.36 54:22 05:14 11.43 ir
10/12/17 Skrējiens modža 18.01 1:26:48 04:49 12.45
10/12/17 Skrējiens mozgovoj ribak 10.64 44:20 04:10 14.40 ir
10/12/17 Skrējiens ROMIX 4.85 29:13 06:01 9.96 ir
10/12/17 Skrējiens kopijs 12.32 1:42:36 08:19 7.20 ir
10/12/17 Skrējiens freeda 8.83 59:22 06:43 8.92 ir
10/12/17 Skrējiens Kadzhus 12.86 1:07:31 05:15 11.43
10/12/17 Skrējiens baler 2.77 18:21 06:37 9.06 ir
10/12/17 Skrējiens xorix 15.00 1:09:09 04:36 13.02 ir
10/12/17 Skrējiens kalvis.upitis 16.09 1:23:21 05:10 11.58
10/12/17 Skrējiens ccuguns 12.06 1:25:17 07:04 8.48 ir
10/12/17 Skrējiens Tārps 15.00 1:44:00 06:56 8.65 ir
10/12/17 Skrējiens Booo_Kat 21.10 1:41:57 04:49 12.42
10/12/17 Skrējiens 0 C pa sniegu InTi68 12.10 1:27:18 146 07:12 8.32 ir
10/12/17 Skrējiens art.is 21.11 1:55:59 05:29 10.92 ir
10/12/17 Skrējiens Ainīc 16.16 1:39:51 06:10 9.71 ir
10/12/17 Skrējiens WiskijsAlus 4.38 26:01 05:56 10.10
10/12/17 Skrējiens guntars.bumans 9.01 54:31 06:03 9.92
10/12/17 Skrējiens I_V 21.20 2:02:39 05:47 10.37 ir
10/12/17 Skrējiens andronkuls 11.53 1:03:58 05:32 10.82 ir
10/12/17 Skrējiens sanita.m 10.02 56:20 05:37 10.67 ir
10/12/17 Skrējiens Martins.Krumins 17.13 1:15:08 04:23 13.68 ir
10/12/17 Skrējiens RozaVita 10.02 1:05:21 06:31 9.20 ir
10/12/17 Skrējiens Jānis_O 10.11 50:39 05:00 11.98 ir
10/12/17 Pa Beberliņiem spruuds 5.36 35:05 06:32 9.17 ir
10/12/17 Skrējiens Andrejs Verza 8.52 54:56 06:26 9.31 ir
10/12/17 Skrējiens chunka 25.25 2:28:50 05:53 10.18 ir
10/12/17 Skrējiens experc 10.03 52:43 05:15 11.42 ir
10/12/17 Rītarosme Nix65 20.16 2:00:44 115 05:59 10.02 ir
10/12/17 Skrējiens Andis87 8.00 51:41 06:27 9.29 ir
10/12/17 Skrējiens Janile 15.03 1:20:45 05:22 11.17
10/12/17 Skrējiens Mr.Linde 15.20 1:35:09 06:15 9.58 ir
10/12/17 Skrējiens EvijaTaurene 15.01 1:47:09 07:08 8.41 ir
10/12/17 Cīnoties ar veselību Labinieks 12.64 1:17:50 06:09 9.74 ir
10/12/17 Skrējiens daskilla 5.39 33:22 06:11 9.69 ir
10/12/17 Skrējiens Rasmiks 10.02 46:32 04:38 12.92
10/12/17 Iesildīšanās Ozolniekos vitjka 3.34 19:23 05:48 10.34 ir
10/12/17 Atsildīšanās Ozolniekos vitjka 1.40 13:20 09:31 6.30 ir
10/12/17 Skrējiens vl80 10.37 1:05:56 141 06:21 9.44 ir
10/12/17 Skrējiens KarīnaK 17.52 1:42:14 05:50 10.28 ir
10/12/17 Skrējiens GvidoB 3.04 32:02 10:32 5.69 ir
10/12/17 Skrējiens Casperr 30.67 2:41:28 05:15 11.40 ir
10/12/17 Beidzot kas drusku garāks Elīna K 13.06 1:31:32 07:00 8.56 ir
10/12/17 ..arī īsi gabali der.. galateja 6.21 39:00 06:16 9.55 ir
10/12/17 Uz / no sacensībām lvingr 4.44 33:00 135 07:25 8.07 ir
10/12/17 Skrējiens NR. 7 Laaurappeeterzone 11.00 1:24:03 07:38 7.85 ir
10/12/17 Skrējiens SITYZOR1 13.12 1:18:49 148 06:00 9.99 ir
10/12/17 Toc Merrython lvingr 5.00 22:33 175 04:30 13.30 ir
10/12/17 . Ingmar 0.00
10/12/17 Promenāde - Krasta iela - Salu tilts - Skanstes iela Olevs 20.01 1:49:51 05:29 10.93 ir
10/12/17 Skrējiens Arweed 15.18 1:38:39 132 06:29 9.23 ir
10/12/17 Pirmais sniegs KarlisBumans 10.00 1:02:38 132 06:15 9.58 ir
10/12/17 2018 zem 2:59:00 laacis1981 13.43 1:41:53 111 07:35 7.91 ir
10/12/17 15 Elvis 15.10 1:22:28 05:27 10.99
10/12/17 RV94 L ONils 15.01 1:24:12 159 05:36 10.70 ir
10/12/17 Vakars pilsētā (3x 5x stacijas trepes) englishteacher 11.00 1:01:09 05:33 10.79 ir
10/12/17 Pilseta aicis 6.30 33:30 05:19 11.28 ir
10/12/17 Azimuta ziema 4.kārta polar 7.15 1:01:39 156 08:37 6.96 ir
10/12/17 Pl. 4:30 cēlos un izskrēju 2x4km + 6x200m labā tempā James87 18.05 1:16:44 04:15 14.11 ir
10/12/17 skrienu +1 Kris-tin 14.01 1:56:09 138 08:17 7.24 ir
10/12/17 tr briediitc 14.04 1:56:07 137 08:16 7.25 ir
10/12/17 Rīts pirms VR ballītes .Linda 6.80 42:07 137 06:11 9.69 ir
10/12/17 Ziemas skrējiens Ozolniekos voļda 15.00 53:41 03:34 16.76 ir
10/12/17 Iesildīšanās Jolis 6.10 32:28 05:19 11.27
10/12/17 Run Jolis 9.11 42:01 04:36 13.01
10/12/17 2trim nois 2.14 16:43 07:48 7.68 ir
10/12/17 F Valka IndarsM 4.00 21:22 05:20 11.23 ir
10/12/17 Ozolnieku Ziemas skrējiens guncha 15.04 57:04 03:47 15.81 ir
10/12/17 7dienas workouts M&M 15.06 1:37:46 06:29 9.24 ir
10/12/17 1697. Vēlais sliežu skrejceļš Artūro 16.16 1:37:19 135 06:01 9.96 ir
10/12/17 Skrējiens Duuu-da 12.00 1:22:35 06:52 8.72 ir
10/12/17 13:40 Dziņa 20.05 2:08:13 152 06:23 9.38 ir
10/12/17 Ozolnieku ziemas skrējiens Joske 15.00 1:04:32 04:18 13.95 ir
10/12/17 Iesildīšanās, atsildīšanās Joske 4.08 28:24 06:57 8.62 ir
10/12/17 Ozolnieku ziemas skrējiens mimite 15.00 1:19:50 154 05:19 11.27 ir
10/12/17 Svētdiena Ginchaa 10.50 1:01:20 131 05:50 10.27
10/12/17 Mežaparks Ozo 9.09 52:29 05:46 10.39 ir
10/12/17 Tukums sergejs1 15.36 1:35:12 06:11 9.68 ir
10/12/17 Vecmilgrāvis bez pulsa matiss 22.12 2:19:09 06:17 9.54 ir
10/12/17 Paskrien leno priekam GintsB 19.75 1:50:37 124 05:36 10.71 ir
10/12/17 90'pulsa forshais1 15.04 1:30:00 05:59 10.03 ir
10/12/17 Jauks vakariņš Sauļuks 15.02 1:30:57 06:03 9.91 ir
10/12/17 Skrējiens zandarts 11.18 1:07:18 135 06:01 9.97 ir
10/12/17 Pirms roņošanas edGars 4.77 36:55 07:44 7.75 ir
10/12/17 Rita rosme azhons 3.33 17:45 05:19 11.26 ir
10/12/17 Siguldas serpentīns AgrisN 15.70 1:44:10 06:38 9.04 ir
10/12/17 Skrējceliņš - uz pirkstiem Andrejs Verza 3.00 15:17 05:05 11.78 ir
10/12/17 AB dambis. Hiēna 10.14 1:06:19 06:32 9.17 ir
10/12/17 Iesildīšanās+atsildīšanās Ozolniekos voļda 3.70 16:40 04:30 13.32 ir
10/12/17 30nieks EdgarsBR 30.02 2:52:15 05:44 10.46
10/12/17 Eglīšu meklējumos Edmunds 21.13 1:52:29 05:19 11.27 ir
10/12/17 no darba vitaminka D 6.73 31:53 143 04:44 12.66
10/12/17 5x200 un 5x600 villijs78 12.08 1:02:08 149 05:08 11.67 ir
10/12/17 Eglītes/neglītes skatīties. Centrs Raitis 20.35 1:49:53 05:23 11.11 ir
10/12/17 skrējiens Flrx 4.00 20:20 05:05 11.80 ir
10/12/17 Ziemassvētku vecīšu labdarības skrējiens ttyson 1.60
10/12/17 175 - LRM treniņš manēžā (ar vingrojumiem) zusurs 6.91 1:09:51 10:06 5.94 ir
10/12/17 piecpatsminieks, max - 152 Aleks Kor 15.04 1:26:26 140 05:44 10.44 ir
10/12/17 Purčiks Kaut kas rapo pa roku 8.43 47:11 05:35 10.72 ir
10/12/17 Ozolnieku Ziemas skrējiens Raitis58 15.00 1:13:09 04:52 12.30 ir
10/12/17 skrējiens AigarsOKZK 11.67 1:03:57 05:28 10.95 ir
10/12/17 #CanariasWeek5 Pulsa 100' (400m) rubernmardom 16.22 1:35:20 129 05:52 10.21 ir
10/12/17 123. Vīlīte 10.01 1:02:16 156 06:13 9.65 ir
10/12/17 ... in 11.95 1:30:02 07:32 7.96 ir
10/12/17 Asfalts Dzo 12.60 58:02 04:36 13.03 ir
10/12/17 Lēnām. Uldzha 2.89 21:03 07:17 8.24 ir
10/12/17 Treniņš Richa_K 20.43 1:51:59 139 05:28 10.95 ir
10/12/17 ....... certa 16.43 1:37:14 145 05:55 10.14 ir
10/12/17 Vakarā pa tumsu ar Romanu Juglas mežā Spāre lido 8.03 43:20 168 05:23 11.12 ir
10/12/17 Malaga marathon Juoņs 42.20 3:38:08 167 05:10 11.61 ir
10/12/17 Melnā lenta 4 rotācijukaraliene 2.54 30:58 116 12:11 4.92 ir
10/12/17 Daugavpils Running Group Prestons 15.94 1:43:11 132 06:28 9.27 ir
10/12/17 Treniņš p.sintija 16.34 1:36:13 05:53 10.19 ir
10/12/17 Ar patversmes suni Ecadla 10.45 1:00:37 05:48 10.34 ir
10/12/17 10.12. thunder man 15.21 1:25:15 05:36 10.70 ir
10/12/17 Ozolnieku ziemas skrējiens m.jordan 15.00 1:08:44 04:34 13.09 ir
10/12/17 Ozolnieki Ziemas nav skrējiens vitjka 15.00 1:06:43 04:26 13.49 ir
10/12/17 Manēžā ildze 6.00 1:00:00 10:00 6.00 ir
10/12/17 ] no ezera cumulus 11.06 53:14 04:48 12.47 ir
10/12/17 ] uz ezeru cumulus 8.24 37:25 04:32 13.21 ir
10/12/17 Ozolnieku ziemas skrējiens Andrejs 15.00 1:04:34 04:18 13.94 ir
10/12/17 Ozolnieku Ziemas skrējiens Jay-P 15.00 1:05:44 160 04:22 13.69 ir
10/12/17 pa Zilajiem līdz Orei Sanča_Ro 16.10 1:58:00 140 07:19 8.19 ir
10/12/17 Iesilt + atsilt + megavilciens Jay-P 4.37 25:00 140 05:43 10.49 ir
10/12/17 Zurich Malga Marathon PB EduardsRu 42.20 4:11:41 05:57 10.06 ir
10/12/17 uz karjeru ar peldi JurRo 10.00 1:19:00 132 07:54 7.59 ir
10/12/17 10km takās izbadējies 9.63 43:40 172 04:32 13.23 ir
10/12/17 214.treniņš Daiguciitis 16.06 2:02:37 07:38 7.86 ir
10/12/17 ezers Janis Millers 6.51 33:15 05:06 11.75
10/12/17 kross bunfunk 18.20 1:19:23 132 04:21 13.76 ir
10/12/17 Skrējiens 20.00 1:37:46 04:53 12.27 ir
10/12/17 Svētdiena +1 D4 pa sniegu 10cm daudz nolūzušu priežu zaru Aldis B 15.11 1:35:34 163 06:19 9.49 ir
10/12/17 Ozolnieku Ziemas skrējiens Rozens 15.00 1:03:08 164 04:12 14.26 ir
10/12/17 iesilde Rozens 2.60 15:54 06:06 9.81 ir
10/12/17 svētdiena jānis59 3.57 26:29 145 07:25 8.09 ir
10/12/17 RR Apaļais 15.70 1:42:31 156 06:31 9.19 ir
10/12/17 Svētdienas lēnais Marta_And 7.10 45:00 06:20 9.47 ir
10/12/17 Treniņš Misters 8.00 41:37 05:12 11.53 ir
10/12/17 Pārdaugava LindaL 16.05 1:38:52 06:09 9.74 ir
10/12/17 Garais Treniņš runner-arrnis 21.00 1:36:11 144 04:34 13.10 ir
10/12/17 Olaine Naurītis 11.11 53:26 04:48 12.48 ir
10/12/17 Atsildīšanās WhatsNew 1.12 09:13 127 08:13 7.29 ir
10/12/17 Z.Magnēts 18.kārta - Ataru ezers WhatsNew 8.71 56:05 169 06:26 9.32 ir
10/12/17 Skrējiens WhatsNew 1.53 10:41 125 06:58 8.59 ir
10/12/17 Garais - izskrēju mašīnu. Voldžiks 28.01 2:32:24 141 05:26 11.03 ir
10/12/17 7diena Gatis.K 16.60 1:40:37 141 06:03 9.90 ir
10/12/17 Ozolnieku ziemas skrējiens IlzeP 15.00 1:45:24 07:01 8.54 ir
10/12/17 Rudenīga meža takas Cassandra 8.05 49:14 06:06 9.81 ir
10/12/17 25 und 25.27 2:05:40 04:58 12.07 ir
10/12/17 Skrejiens suns 9.30 51:00 05:29 10.94
10/12/17 Vecmīlgrāvis. sigita 22.13 2:19:13 138 06:17 9.54 ir
10/12/17 s/c andris13 10.00 43:15 04:19 13.87 ir
10/12/17 Nasing spešel. Antramons 11.07 1:13:23 06:37 9.05 ir
10/12/17 12.80 km zvaigzne 12.80 1:18:00 06:05 9.85 ir
10/12/17 Zvejniekciems AndrisJ 15.19 1:22:20 144 05:25 11.07 ir
10/12/17 TGC 2.58 Takas S! 600m Spidey4fun 16.21 1:47:00 06:36 9.09 ir
10/12/17 ieelpot mežu Lauma 7.01 47:33 146 06:46 8.85 ir
10/12/17 svedienins normundiņš 11.14 1:07:57 154 06:05 9.84 ir
10/12/17 50min v-sk Kru 10.65 51:55 04:52 12.31 ir
10/12/17 Mežā var atrast ledu aijuciiic 10.20 1:10:07 06:52 8.73 ir
10/12/17 Aplis caur Eimuriem otto 22.56 1:56:43 142 05:10 11.60 ir
10/12/17 Garais. Rainers 25.75 2:23:30 119 05:34 10.77 ir
10/12/17 Svētdienis _Edgars_ 24.20 1:56:53 04:49 12.42 ir
10/12/17 brokastu pusgarais stjopachio 19.01 1:30:25 132 04:45 12.61 ir
10/12/17 Vienmērīgs skrējiens 50min ar 8 sprintiem pa 10 sek. . kalnu_žubīte 7.10 50:16 164 07:04 8.47 ir
10/12/17 Velviens superlēnais skrējiens Roziiite 9.01 1:13:28 08:09 7.36 ir
10/12/17 Nūjot atļauts. Slinkums salāpīts Lielkuilis 6.60 54:20 08:13 7.29 ir
10/12/17 jāvelk naglu botes neirula 5.04 43:00 137 08:31 7.03 ir
10/12/17 apļi + trepes LEICHA 11.10 1:24:11 151 07:35 7.91
10/12/17 Skrējiens Dzintars 17.03 1:23:18 04:53 12.27 ir
10/12/17 Siguldā ar radiem (9.5km basām) einmed 15.28 1:50:50 132 07:15 8.27 ir
10/12/17 Kopā ar Gunāru Jākobsonu smaidot visu ceļu, :)) anciite 8.17 48:07 05:53 10.19 ir
10/12/17 dienas pikols 16.04 1:52:36 126 07:01 8.55 ir
10/12/17 ar mazo Amēliju Ugisdatavs 2.90 20:00 110 06:53 8.70 ir
10/12/17 Pa Salaspili Aivars 10.20 ir
10/12/17 tr/d munkirs 8.00 44:27 138 05:33 10.80 ir
10/12/17 Lenta 22 (incl 2.5-0.0) IvarsRacins 11.00 56:59 05:10 11.58 ir
10/12/17 65 arturs.locmelis 11.91 1:17:41 125 06:31 9.20 ir
10/12/17 Ozolnieku ziemas skrējiens vnkIndra 15.00 1:20:24 164 05:21 11.19 ir
10/12/17 HH Alster See zirnis 12.03 1:14:25 06:11 9.70 ir
10/12/17 #249.N11D7 JurBer 13.47 1:30:00 140 06:40 8.98 ir
10/12/17 asfalts kveks 27.00 2:08:25 04:45 12.62
10/12/17 Svētdienas rīts eees 3.06 20:00 06:32 9.18 ir
10/12/17 Skrējiens Dubultaģente 12.80 1:41:38 135 07:56 7.56 ir
10/12/17 Svētdienas skrējiens ugis_v 15.50 1:22:06 159 05:17 11.33 ir
10/12/17 226. ilvarito 22.03 1:48:26 04:55 12.19 ir
10/12/17 149. Didzis 12.11 ir
10/12/17 Pasta rūķa pienākumu ceļos skai-tlot-ajs 23.93 2:06:14 05:16 11.37 ir
10/12/17 SLN32 lerychv 11.02 1:04:47 121 05:52 10.21 ir
10/12/17 No rīta. Kristiāns 8.02 38:53 04:50 12.38 ir
10/12/17 Zante IntaN 7.55 46:00 06:05 9.85 ir
10/12/17 Treniņš 0`C andis.deze 12.00 49:06 04:05 14.66 ir
10/12/17 Skrējiens mtiger 11.68 58:40 05:01 11.95 ir
10/12/17 Skrējiens Alvals 10.06 58:58 05:51 10.24 ir
10/12/17 Skrējiens Pokainis 6.27 35:51 05:43 10.49 ir
10/12/17 Skrējiens Miezers 11.00 1:02:32 05:41 10.55 ir
10/12/17 Milzkalne sergejs1 7.74 55:05 07:07 8.43 ir
10/12/17 Rīta skrējiens pirms Durbes brauciena. Maķenīt slidens.Grūti skrējās :(-pašsajūta :( Gīča 10.11 50:00 160 04:56 12.13
10/12/17 skrienam Jurs 5.00 30:19 06:03 9.90 ir
10/12/17 Skrējiens frišais 11.11 1:02:16 05:36 10.71 ir
09/12/17 Gatavošanās SKM Trakais 9.00 40:48 04:32 13.24 ir
09/12/17 Skrējiens Smiteeens 5.01 29:32 05:53 10.18
09/12/17 Malaga topinjs 5.81 35:32 06:06 9.81 ir
09/12/17 Pēc šahtas DLK 2.05 11:54 05:48 10.34 ir
09/12/17 skrējiens Boriss 14.05 1:20:00 142 05:41 10.54 ir
09/12/17 Stadions Normunds7 20.00 1:34:33 04:43 12.69 ir
09/12/17 skrējiens Mermaid 13.00 1:15:11 05:47 10.37 ir
09/12/17 Skrējiens Zigis 10.85 1:00:43 05:35 10.72
09/12/17 Skrējiens jaudzin 8.88 48:39 05:28 10.95
09/12/17 Morning run with dog sundowner 2.20 10:45 04:53 12.28 ir
09/12/17 Bajāri jurcha 10.03 1:02:31 130 06:13 9.63
09/12/17 Of all the paths you take, make sure few of them are dirt EsVaru 8.38 1:02:19 07:26 8.07 ir
09/12/17 Valkas četrciņa olga201 4.00 22:06 05:31 10.86
09/12/17 Zālē Gunjux 4.46 30:22 06:48 8.81 ir
09/12/17 run dima.h2o 40.02 4:19:13 06:28 9.26
09/12/17 Garais temps 1km 5:30/1km lēns Ilze_j 15.60 1:30:24 141 05:47 10.35 ir
09/12/17 magnēts ario 7.70 47:00 06:06 9.83 ir
09/12/17 pa dienu 2*, Tanzānijā Neatkarības diena JK 2.33 15:31 06:39 9.01 ir
09/12/17 T avalanche 7.77
09/12/17 vakars Elsi 5.00
09/12/17 Sestdienis Rainy777 2.60 20:00 07:41 7.80 ir
09/12/17 Skrējiens DS93 14.00 1:04:00 04:34 13.13
09/12/17 Skrējiens Martinits1 2.64 14:11 05:22 11.17 ir
09/12/17 Skrējiens ccuguns 12.05 1:22:25 06:50 8.77 ir
09/12/17 Sestdiena Labinieks 15.00 1:18:09 05:12 11.52 ir
09/12/17 sestdien uz maju gasha 6.00 33:50 05:38 10.64 ir
09/12/17 sestdien uz darbu gasha 7.45 39:45 05:20 11.25 ir
09/12/17 slinkais uz pastu gasha 2.00 11:00 05:30 10.91 ir
09/12/17 10x500/250@2:06 snow runnerchick 7.50 37:00 165 04:56 12.16 ir
09/12/17 Warmup cooldown runnerchick 10.00 1:00:00 126 06:00 10.00 ir
09/12/17 Skrējiens Logins 7.58 3:02:44 24:06 2.49 ir
09/12/17 Skrējiens NR. 6 Laaurappeeterzone 7.01 47:08 06:43 8.92 ir
09/12/17 Lycabettus lvingr 4.50 33:00 145 07:20 8.18
09/12/17 Promenāde - Dienvidu tilts - Salu tilts Olevs 20.50 1:49:30 05:20 11.23 ir
09/12/17 RV93 L ONils 6.50 37:28 149 05:45 10.41 ir
09/12/17 skrienu +1 Kris-tin 7.03 52:29 07:27 8.04 ir
09/12/17 tr briediitc 7.02 52:29 07:28 8.03 ir
09/12/17 Kundziņsalas šarmējums (57/14h) matiss 20.25 2:09:45 106 06:24 9.36 ir
09/12/17 Rita rosme azhons 3.33 18:10 05:27 11.00 ir
09/12/17 TGV v2.02 (Sigulda) Džokers 15.50 1:24:39 05:27 10.99 ir
09/12/17 LSC Veselības skrējiens apkārt Uzvaras parkam voļda 12.00 45:17 03:46 15.90 ir
09/12/17 Iesildīšanās Uzvaras parkā voļda 1.60 08:22 05:13 11.47 ir
09/12/17 Rīta skrējiens uz Ķengaragu Edmunds 21.25 1:47:42 05:04 11.84 ir
09/12/17 Vējains rīts Raitis 13.30 1:08:24 05:08 11.67 ir
09/12/17 pa mazam, max- 155 Aleks Kor 4.45 24:49 138 05:34 10.76 ir
09/12/17 Vāveres & Rieksti noskēdz sezonu Vaidavā Ina 15.54 2:55:29 11:17 5.31 ir
09/12/17 #CanariasWeek5 Pulsa 80' rubernmardom 15.50 1:17:59 129 05:01 11.93 ir
09/12/17 Rīta endorfīns Ecadla 9.06 52:01 05:44 10.45 ir
09/12/17 Pa apkārtni ildze 5.60 36:00 06:25 9.33 ir
09/12/17 uz peldi karjerā Sanča_Ro 10.00 1:19:00 119 07:54 7.59 ir
09/12/17 Supervaroņi Siguldā - 7x Serpentīns ar Džokeru borga 15.09 1:29:00 164 05:53 10.17 ir
09/12/17 Sestdiena AndrisJ 10.12 56:16 05:33 10.79 ir
09/12/17 Ziemas Magnēta 17.kārta - Suži ArnisŠ 12.29 1:18:57 06:25 9.34
09/12/17 ... in 14.02 1:28:46 06:19 9.48 ir
09/12/17 Skrējiens Jānis_O 22.02 1:49:06 04:57 12.11 ir
09/12/17 Zilie kalni EdgarsBR 15.19 1:26:55 05:43 10.49
09/12/17 Skrējiens raitisbe 18.04 1:37:08 05:23 11.14 ir
09/12/17 Magnēts Rasels 11.50 1:13:00 149 06:20 9.45 ir
09/12/17 uz Rasels 8.20 48:30 127 05:54 10.14 ir
09/12/17 Skrējiens GeT_RiGhT 16.50 1:37:01 05:52 10.20
09/12/17 Skrējiens Mairita 15.75 2:22:58 09:04 6.61
09/12/17 Skrējiens Booo_Kat 12.01 1:00:44 05:03 11.86
09/12/17 Skrējiens I_V 14.21 1:24:59 05:58 10.03 ir
09/12/17 Skrējiens zandarts 10.41 1:01:20 139 05:53 10.18 ir
09/12/17 Skrējiens Inga_K 10.07 1:04:37 139 06:25 9.35 ir
09/12/17 Punktu medības Inga_K 14.69 3:01:34 12:21 4.85 ir
09/12/17 Skrējiens Kaspars33 14.51 1:07:12 04:37 12.96 ir
09/12/17 Skrējiens ramiism 16.69 1:39:32 05:57 10.06 ir
09/12/17 Skrējiens JanJ 21.15 1:40:49 04:46 12.59
09/12/17 Skrējiens xorix 4.25 22:28 05:17 11.35 ir
09/12/17 Skrējiens didzzzons 20.02 1:33:51 04:41 12.80
09/12/17 Skrējiens didzzzons 12.15 1:15:09 06:11 9.70
09/12/17 Skrējiens MIk 11.85 1:26:10 07:16 8.25 ir
09/12/17 Skrējiens Ievinja 7.55 48:00 06:21 9.44 ir
09/12/17 Skrējiens MBirums 12.09 1:10:49 05:51 10.24 ir
09/12/17 Skrējiens Stupinss 13.36 1:03:56 04:47 12.54 ir
09/12/17 Orientēšanās armands l 11.94 1:22:56 06:56 8.64
09/12/17 Skrējiens Lapsene 5.82 35:44 06:08 9.77 ir
09/12/17 Skrējiens Anncce 14.51 1:28:35 06:06 9.83
09/12/17 Skrējiens gudeens 16.16 1:40:30 06:13 9.65
09/12/17 Skrējiens polar 11.57 58:21 05:02 11.90 ir
09/12/17 Skrējiens des 4.36 22:14 05:05 11.77 ir
09/12/17 Skrējiens edg 7.63 45:26 05:57 10.08 ir
09/12/17 Skrējiens Martins.Krumins 20.01 2:39:38 07:58 7.52 ir
09/12/17 Skrējiens noskrēju! 7.66 49:29 06:27 9.29 ir
09/12/17 Skrējiens KarīnaK 14.39 1:26:34 06:00 9.97 ir
09/12/17 Skrējiens johaidi 16.38 1:27:07 05:19 11.28 ir
09/12/17 Skrējiens Piiraadzinjsh 5.54 49:40 08:57 6.69
09/12/17 Skrējiens Piiraadzinjsh 3.15 26:08 08:17 7.23
09/12/17 Skrējiens archs 15.36 1:33:34 06:05 9.85
09/12/17 Skrējiens AgrisN 18.04 1:40:01 05:32 10.82 ir
09/12/17 Skrējiens migors 10.71 1:13:49 06:53 8.71
09/12/17 Skrējiens RozaVita 8.84 51:55 05:52 10.22 ir
09/12/17 Skrējiens ROY 12.01 1:00:49 05:03 11.85
09/12/17 Skrējiens Ainīc 16.01 1:36:01 05:59 10.00
09/12/17 Skrējiens raraitis 9.09 41:50 04:36 13.04 ir
09/12/17 Skrējiens CaunietisLV 7.34 35:30 04:50 12.41
09/12/17 Skrējiens rmamedov 6.37 37:45 149 05:55 10.12 ir
09/12/17 Skrējiens daskilla 11.12 58:51 05:17 11.34 ir
09/12/17 Rītarosme Nix65 24.07 2:23:21 120 05:57 10.07 ir
09/12/17 Skrējiens m.kalejs 6.60 38:47 05:52 10.21
09/12/17 Skrējiens Kristaps Bruss 12.19 1:04:41 05:18 11.31 ir
09/12/17 Skrējiens Andis87 6.00 30:20 05:03 11.87 ir
09/12/17 Skrējiens Natthe 12.05 1:16:28 146 06:20 9.46 ir
09/12/17 Skrējiens Bubu 15.02 1:22:50 05:30 10.88 ir
09/12/17 Skrējiens Bubu 15.55 1:29:14 05:44 10.46 ir
09/12/17 Skrējiens MartinsOzolins 5.01 31:55 06:22 9.42 ir
09/12/17 Skrējiens guntars.bumans 10.01 58:36 05:51 10.25
09/12/17 Skrējiens oskarsdamb 13.05 1:15:39 05:47 10.35 ir
09/12/17 Skrējiens SandisC 10.18 58:40 05:45 10.41 ir
09/12/17 Skrējiens Sandijs 10.09 54:01 05:21 11.21 ir
09/12/17 Pa asfaltētu ielu Pičuks Dz 3.40 24:06 07:05 8.46
09/12/17 Skrējiens Ize_De 14.58 1:50:42 07:35 7.90
09/12/17 Iesildīšanās un atsildīšanās - SFS noris 6.18 31:04 05:01 11.94 ir
09/12/17 Skrējiens Rasmiks 10.02 46:40 04:39 12.88
09/12/17 Skrējiens kopijs 7.99 58:14 07:17 8.23 ir
09/12/17 Skrējiens anikka 11.04 1:11:51 06:30 9.22 ir
09/12/17 Skrējiens burunduks 9.95 1:03:08 06:20 9.46 ir
09/12/17 Skrējiens Lubyz 36.45 3:37:35 05:58 10.05 ir
09/12/17 17:39, otrais ceeliens Dziņa 12.05 1:19:11 153 06:34 9.13 ir
09/12/17 12:25, pirmais ceeliens Dziņa 14.00 1:29:50 152 06:25 9.35 ir
09/12/17 174 - LRM warm-up weekend zusurs 10.00 1:00:44 06:04 9.88 ir
09/12/17 Paskruen mierigo GintsB 15.52 1:30:07 121 05:48 10.33 ir
09/12/17 14 Elvis 14.08 1:10:00 04:58 12.07
09/12/17 Kundziņsala. sigita 20.20 2:09:27 06:24 9.36 ir
09/12/17 nedaudz pa Rīgu Rainers 7.61 42:25 05:34 10.76 ir
09/12/17 ar kūku vēderā vitaminka D 12.15 56:46 147 04:40 12.84
09/12/17 Olaine Naurītis 12.50 1:03:52 05:06 11.74 ir
09/12/17 Lēnām. Uldzha 5.12 37:22 07:17 8.22 ir
09/12/17 aer villijs78 5.02 29:06 133 05:47 10.35 ir
09/12/17 aer villijs78 3.68 23:32 126 06:23 9.38 ir
09/12/17 vēlais puuce 15.01 1:19:08 146 05:16 11.38 ir
09/12/17 030_Madona_002 Pedro 7.70 50:23 139 06:32 9.17
09/12/17 Skrējiens buraam 5.14 31:11 06:04 9.89 ir
09/12/17 #15 garāks kompānijā ar nepazīstamu cilvēku līdz šim Zazuuu 15.00 1:40:39 141 06:42 8.94 ir
09/12/17 Treniņš p.sintija 11.36 1:06:20 05:50 10.28 ir
09/12/17 uz Bleckpool lēni turp, ātri atpakaļ Ugisdatavs 27.00 2:16:30 05:03 11.87 ir
09/12/17 kross pa pielijušām kāpām edGars 14.69 1:22:29 147 05:36 10.69 ir
09/12/17 Mainot tempu Andris__Z 4.50 32:30 137 07:13 8.31 ir
09/12/17 Kāju atskraidīšana vnkIndra 2.02 13:06 142 06:29 9.25 ir
09/12/17 LSC veselība, 9.posms vnkIndra 6.21 32:11 166 05:10 11.58 ir
09/12/17 15 min lidz 165, pec tam lidz 175 EK1983 7.01 43:25 170 06:11 9.69 ir
09/12/17 Beidzot forši skrējās. SUPER :) Ginchaa 20.10 2:03:08 133 06:07 9.79
09/12/17 213.treniņš Daiguciitis 8.60 58:51 06:50 8.77 ir
09/12/17 Skrējiens Evija Miglane 11.09 1:11:21 148 06:26 9.33 ir
09/12/17 skrējiens AigarsOKZK 10.17 58:36 05:45 10.41 ir
09/12/17 Skrējiens Dubultaģente 6.13 50:14 136 08:11 7.32 ir
09/12/17 Asfalts Dzo 18.00 1:25:12 04:44 12.68 ir
09/12/17 m js79 8.20 ir
09/12/17 #68 Pēča 10.21 1:04:41 153 06:20 9.47 ir
09/12/17 Divu tiltu skrējiens Guna 15.16 1:40:13 06:36 9.08 ir
09/12/17 2018 zem 2:59:00 laacis1981 8.16 58:08 128 07:07 8.42 ir
09/12/17 65 arturs.locmelis 10.03 54:16 119 05:24 11.09 ir
09/12/17 Svētdien Biruta 11.21 1:06:29 05:55 10.12 ir
09/12/17 Ar suni ar, līkomojot krustām šķērsām pa Karostas ielām, apskriets apkārt Karostas kanākam KarlisBumans 16.00 1:35:55 140 05:59 10.01 ir
09/12/17 Mežaparka-Sarkandaugavas aplis LindaL 14.11 1:24:31 05:59 10.02 ir
09/12/17 Tempo 5km-18:24 bunfunk 11.00 43:52 150 03:59 15.05 ir
09/12/17 Rīgas kalnu gandrīz maratons maziinais 38.00 3:47:06 151 05:58 10.04 ir
09/12/17 +2°C Stayer 12.80 1:13:30 05:44 10.45 ir
09/12/17 Iesilde/atsilde, spēle LAT-SLO, Slovākija-Bratislava #wfc2017 Chuncha 1.40 06:20 04:31 13.26 ir
09/12/17 Nedēļas garais EvijaK 17.32 1:56:59 06:45 8.88
09/12/17 Biķernieku un Juglas takas Cassandra 21.22 2:13:04 06:16 9.57 ir
09/12/17 Testi ... runner-arrnis 3.00 09:56 03:18 18.12 ir
09/12/17 Uz Priedaini pa mežu, atpakaļ veloceliņš + Imantas aplis Jānis_v 22.42 1:55:33 136 05:09 11.64 ir
09/12/17 Pa mežu m.jordan 8.13 40:00 04:55 12.20 ir
09/12/17 Reti sanāk sestdienā gskunstins 11.07 1:04:54 154 05:51 10.23 ir
09/12/17 Veselības apļi Grīziņkalnā. Andrejs 6.33 28:12 04:27 13.47 ir
09/12/17 Lēnais, garais skrējiens, +5° Alarion 9.75 1:45:08 124 10:46 5.56 ir
09/12/17 Treniņš Misters 9.57 56:35 05:54 10.15 ir
09/12/17 Pirms baseina Kaut kas rapo pa roku 8.12 45:51 05:38 10.63 ir
09/12/17 TGC 2.57 Vakars Spidey4fun 6.98 42:38 06:06 9.82 ir
09/12/17 Sestdiena. The Power. Jay-P 5.16 30:00 129 05:48 10.32 ir
09/12/17 Hes aicis 8.00 41:20 05:10 11.61 ir
09/12/17 Ar ģimeni uz patku bunbinja 3.46 26:29 07:39 7.84 ir
09/12/17 148. Didzis 10.36 ir
09/12/17 Adidas runners Warm-up weekend with Valērijs Žolnerovičs ansiso 12.00 ir
09/12/17 Sestdienis Lasma3 12.01 1:29:33 149 07:27 8.05 ir
09/12/17 Atkal ar savu f3 Duuu-da 9.00 55:10 06:07 9.79 ir
09/12/17 Vabu placis atpakaļ pa kāpas muguru Oldington 9.80 1:43:44 129 10:35 5.67
09/12/17 vietām slapjš, vietām slidens neirula 11.50 1:26:00 149 07:28 8.02 ir
09/12/17 apļi + trepes LEICHA 6.52 49:31 149 07:35 7.90
09/12/17 Skrējiens mtiger 12.75 1:07:19 05:16 11.36 ir
09/12/17 atsildīšanās Kru 2.00 11:02 05:31 10.88 ir
09/12/17 iesilde Kru 4.16 20:01 04:48 12.47 ir
09/12/17 LRM treniņš Zanda19 9.05 57:57 156 06:24 9.37 ir
09/12/17 Sestdiena. Inzy 14.22 1:27:56 06:11 9.70 ir
09/12/17 Atsildīšanās Dzintars 2.02 12:51 06:21 9.43 ir
09/12/17 Nu super lēēēnais skrējiens Roziiite 6.07 49:57 08:13 7.29 ir
09/12/17 LSC seriāls “Veselība” Uzvaras parkā, 9. kārta Dzintars 12.50 53:34 04:17 14.00 ir
09/12/17 Kāpu promenāde seismologs 11.54 1:04:40 143 05:36 10.71 ir
09/12/17 Iesildīšanās Dzintars 0.50 03:13 06:26 9.33 ir
09/12/17 tr/d munkirs 11.00 1:01:11 05:33 10.79 ir
09/12/17 Basām Skultes mežs + 4km kalniņi einmed 19.30 2:08:29 128 06:39 9.01 ir
09/12/17 Razminka Tatjana1999 1.15 06:54 144 06:00 10.00
09/12/17 no Uzvaras parka Rozens 3.47 20:28 140 05:53 10.17 ir
09/12/17 sacenes Uzvaras parkā 12km Rozens 12.43 52:07 167 04:11 14.31 ir
09/12/17 uz Uzvaras parku Rozens 3.66 21:28 127 05:51 10.23 ir
09/12/17 Words skai-tlot-ajs 14.60 1:14:56 05:07 11.69 ir
09/12/17 Rīta līkloči pilsētā un stacijas trepes 2x 5x englishteacher 17.00 1:29:40 05:16 11.38 ir
09/12/17 plakanais Desperado 6.00 27:00 04:30 13.33 ir
09/12/17 s/c andris13 22.00 1:41:15 04:36 13.04 ir
09/12/17 Skrienlatvija27 Alvis D 12.01 1:01:29 05:07 11.72 ir
09/12/17 apkārt bankai jeerika 16.52 1:38:00 05:55 10.11
09/12/17 Sestdienis _Edgars_ 18.10 1:28:19 04:52 12.30 ir
09/12/17 Skrējiens 14.00 1:08:00 04:51 12.35 ir
09/12/17 Skrējiens Alvals 15.02 1:25:58 05:43 10.48 ir
09/12/17 st. kveks 14.00
09/12/17 brokastu maziņais stjopachio 5.34 25:13 132 04:43 12.71 ir
09/12/17 Bezcerīgi kalniņi slapja mežā Ina 13.01 1:55:46 159 08:53 6.74 ir
09/12/17 225. ilvarito 11.84 1:04:33 05:27 11.01 ir
09/12/17 Galvā gribās vairāk, bet kājas var tik eees 3.15 20:20 06:27 9.30 ir
09/12/17 Paldies Adidas Adizero Feather 4m par nieka 647km kopā noskrietajiem James87 11.00 47:46 150 04:20 13.82 ir
09/12/17 Pa Salaspili Aivars 3.00 ir
09/12/17 No rīta Maikijs 7.35 42:36 05:47 10.35 ir
09/12/17 #248.N11D6 JurBer 10.29 1:10:08 147 06:48 8.80 ir
09/12/17 Treniņš andis.deze 12.00 48:27 04:02 14.86 ir
09/12/17 SLN31 lerychv 12.44 1:06:34 123 05:21 11.21 ir
09/12/17 Rīts uz Linezeru, iegremdēšanās tajā un atpakaļ ar Andreju OreMan 5.60 28:45 05:08 11.69 ir
09/12/17 Skrējiens Sinta1 5.67 31:17 05:31 10.87 ir
09/12/17 Joprojām slidens vitjka 15.51 1:23:00 05:21 11.21 ir
09/12/17 Skrējiens AivisP 10.08 1:21:22 08:04 7.43 ir
09/12/17 Nakts paskrējiens Lidosta - Imanta 4 Valdis.M 7.05 31:48 04:30 13.30 ir
09/12/17 Darbs. Spilve - Daugavas SN. Raibacainais Ezītis 15.02 1:22:31 05:29 10.92 ir
09/12/17 Skrējiens Miezers 11.11 1:01:00 05:29 10.93 ir
09/12/17 rīta pikols 14.22 1:43:13 122 07:15 8.27 ir
09/12/17 Skrējiens frišais 7.69 42:58 05:35 10.74 ir
09/12/17 tipu tapu GintsK 6.92 57:55 08:22 7.17 ir
09/12/17 Treniņš Misters 7.00 40:05 05:43 10.48 ir
09/12/17 Skrējiens garaissss 10.45 58:45 135 05:37 10.67 ir